Wetterdaten: Samstag, 15.02.2014
Datum Zeit Temp. Aussen +5cm Feuchte Auss Luftdruck Regen Sonnenschein Regendauer UV Solar Windben
15.02.2014 00:00 6,7 C 5,0 C 91 % 992,3 hPa 0,0 l/m 0 min 0 min 0,0 UV-I 0 W/m 25,7 km/h (4 Bft)
15.02.2014 00:02 6,8 C 5,0 C 91 % 992,4 hPa 0,0 l/m 0 min 0 min 0,0 UV-I 0 W/m 25,7 km/h (4 Bft)
15.02.2014 00:04 6,8 C 5,0 C 91 % 992,4 hPa 0,0 l/m 0 min 0 min 0,0 UV-I 0 W/m 15,4 km/h (3 Bft)
15.02.2014 00:06 6,8 C 5,0 C 91 % 992,5 hPa 0,0 l/m 0 min 0 min 0,0 UV-I 0 W/m 23,2 km/h (4 Bft)
15.02.2014 00:08 6,8 C 5,0 C 91 % 992,5 hPa 0,0 l/m 0 min 0 min 0,0 UV-I 0 W/m 25,7 km/h (4 Bft)
15.02.2014 00:10 6,8 C 5,0 C 91 % 992,3 hPa 0,0 l/m 0 min 0 min 0,0 UV-I 0 W/m 23,2 km/h (4 Bft)
15.02.2014 00:12 6,9 C 5,0 C 91 % 992,2 hPa 0,0 l/m 0 min 0 min 0,0 UV-I 0 W/m 30,9 km/h (5 Bft)
15.02.2014 00:14 6,9 C 5,0 C 91 % 992,2 hPa 0,0 l/m 0 min 0 min 0,0 UV-I 0 W/m 25,7 km/h (4 Bft)
15.02.2014 00:16 6,9 C 5,0 C 91 % 992,1 hPa 0,0 l/m 0 min 0 min 0,0 UV-I 0 W/m 33,5 km/h (5 Bft)
15.02.2014 00:18 6,9 C 5,6 C 91 % 992,2 hPa 0,0 l/m 0 min 0 min 0,0 UV-I 0 W/m 28,3 km/h (4 Bft)
15.02.2014 00:20 7,0 C 5,6 C 91 % 992,2 hPa 0,0 l/m 0 min 0 min 0,0 UV-I 0 W/m 23,2 km/h (4 Bft)
15.02.2014 00:22 7,0 C 5,6 C 91 % 992,2 hPa 0,0 l/m 0 min 0 min 0,0 UV-I 0 W/m 20,6 km/h (4 Bft)
15.02.2014 00:24 7,1 C 5,6 C 91 % 992,2 hPa 0,0 l/m 0 min 0 min 0,0 UV-I 0 W/m 36,0 km/h (5 Bft)
15.02.2014 00:26 7,1 C 5,6 C 91 % 992,1 hPa 0,0 l/m 0 min 0 min 0,0 UV-I 0 W/m 30,9 km/h (5 Bft)
15.02.2014 00:28 7,1 C 5,6 C 91 % 992,1 hPa 0,0 l/m 0 min 0 min 0,0 UV-I 0 W/m 28,3 km/h (4 Bft)
15.02.2014 00:30 7,2 C 5,6 C 91 % 992,1 hPa 0,0 l/m 0 min 0 min 0,0 UV-I 0 W/m 23,2 km/h (4 Bft)
15.02.2014 00:32 7,2 C 5,6 C 91 % 992,1 hPa 0,0 l/m 0 min 0 min 0,0 UV-I 0 W/m 23,2 km/h (4 Bft)
15.02.2014 00:34 7,2 C 5,6 C 91 % 992,0 hPa 0,0 l/m 0 min 0 min 0,0 UV-I 0 W/m 25,7 km/h (4 Bft)
15.02.2014 00:36 7,2 C 5,6 C 91 % 992,0 hPa 0,0 l/m 0 min 0 min 0,0 UV-I 0 W/m 28,3 km/h (4 Bft)
15.02.2014 00:38 7,2 C 5,6 C 91 % 991,9 hPa 0,0 l/m 0 min 0 min 0,0 UV-I 0 W/m 28,3 km/h (4 Bft)
15.02.2014 00:40 7,3 C 5,6 C 91 % 992,0 hPa 0,0 l/m 0 min 0 min 0,0 UV-I 0 W/m 20,6 km/h (4 Bft)
15.02.2014 00:42 7,3 C 5,6 C 91 % 992,1 hPa 0,0 l/m 0 min 0 min 0,0 UV-I 0 W/m 25,7 km/h (4 Bft)
15.02.2014 00:44 7,3 C 5,6 C 91 % 992,1 hPa 0,0 l/m 0 min 0 min 0,0 UV-I 0 W/m 30,9 km/h (5 Bft)
15.02.2014 00:46 7,3 C 5,6 C 91 % 992,0 hPa 0,0 l/m 0 min 0 min 0,0 UV-I 0 W/m 25,7 km/h (4 Bft)
15.02.2014 00:48 7,3 C 5,6 C 91 % 991,9 hPa 0,0 l/m 0 min 0 min 0,0 UV-I 0 W/m 18,0 km/h (3 Bft)
15.02.2014 00:50 7,3 C 5,6 C 91 % 991,7 hPa 0,0 l/m 0 min 0 min 0,0 UV-I 0 W/m 28,3 km/h (4 Bft)
15.02.2014 00:52 7,4 C 5,6 C 91 % 991,9 hPa 0,0 l/m 0 min 0 min 0,0 UV-I 0 W/m 38,6 km/h (5 Bft)
15.02.2014 00:54 7,4 C 5,6 C 91 % 991,9 hPa 0,0 l/m 0 min 0 min 0,0 UV-I 0 W/m 36,0 km/h (5 Bft)
15.02.2014 00:56 7,4 C 5,6 C 90 % 991,8 hPa 0,0 l/m 0 min 0 min 0,0 UV-I 0 W/m 20,6 km/h (4 Bft)
15.02.2014 00:58 7,4 C 5,6 C 90 % 992,1 hPa 0,0 l/m 0 min 0 min 0,0 UV-I 0 W/m 30,9 km/h (5 Bft)
15.02.2014 01:00 7,4 C 5,6 C 90 % 992,0 hPa 0,0 l/m 0 min 0 min 0,0 UV-I 0 W/m 23,2 km/h (4 Bft)
15.02.2014 01:02 7,4 C 5,6 C 90 % 991,9 hPa 0,0 l/m 0 min 0 min 0,0 UV-I 0 W/m 28,3 km/h (4 Bft)
15.02.2014 01:04 7,4 C 5,6 C 90 % 991,7 hPa 0,0 l/m 0 min 0 min 0,0 UV-I 0 W/m 23,2 km/h (4 Bft)
15.02.2014 01:06 7,5 C 5,6 C 90 % 991,7 hPa 0,0 l/m 0 min 0 min 0,0 UV-I 0 W/m 33,5 km/h (5 Bft)
15.02.2014 01:08 7,5 C 5,6 C 90 % 991,6 hPa 0,0 l/m 0 min 0 min 0,0 UV-I 0 W/m 20,6 km/h (4 Bft)
15.02.2014 01:10 7,5 C 5,6 C 90 % 991,6 hPa 0,0 l/m 0 min 0 min 0,0 UV-I 0 W/m 30,9 km/h (5 Bft)
15.02.2014 01:12 7,6 C 5,6 C 90 % 991,6 hPa 0,0 l/m 0 min 0 min 0,0 UV-I 0 W/m 33,5 km/h (5 Bft)
15.02.2014 01:14 7,6 C 5,6 C 90 % 991,7 hPa 0,0 l/m 0 min 0 min 0,0 UV-I 0 W/m 33,5 km/h (5 Bft)
15.02.2014 01:16 7,6 C 5,6 C 90 % 991,7 hPa 0,0 l/m 0 min 0 min 0,0 UV-I 0 W/m 23,2 km/h (4 Bft)
15.02.2014 01:18 7,7 C 5,6 C 90 % 991,8 hPa 0,0 l/m 0 min 0 min 0,0 UV-I 0 W/m 25,7 km/h (4 Bft)
15.02.2014 01:20 7,7 C 5,6 C 90 % 991,6 hPa 0,0 l/m 0 min 0 min 0,0 UV-I 0 W/m 18,0 km/h (3 Bft)
15.02.2014 01:22 7,7 C 5,6 C 90 % 991,8 hPa 0,0 l/m 0 min 0 min 0,0 UV-I 0 W/m 20,6 km/h (4 Bft)
15.02.2014 01:24 7,7 C 5,6 C 90 % 991,6 hPa 0,0 l/m 0 min 0 min 0,0 UV-I 0 W/m 20,6 km/h (4 Bft)
15.02.2014 01:26 7,7 C 5,6 C 90 % 991,8 hPa 0,0 l/m 0 min 0 min 0,0 UV-I 0 W/m 25,7 km/h (4 Bft)
15.02.2014 01:28 7,7 C 5,6 C 90 % 991,8 hPa 0,0 l/m 0 min 0 min 0,0 UV-I 0 W/m 23,2 km/h (4 Bft)
15.02.2014 01:30 7,7 C 5,6 C 90 % 991,7 hPa 0,0 l/m 0 min 0 min 0,0 UV-I 0 W/m 25,7 km/h (4 Bft)
15.02.2014 01:32 7,8 C 6,1 C 90 % 991,8 hPa 0,0 l/m 0 min 0 min 0,0 UV-I 0 W/m 23,2 km/h (4 Bft)
15.02.2014 01:34 7,8 C 6,1 C 90 % 991,8 hPa 0,0 l/m 0 min 0 min 0,0 UV-I 0 W/m 28,3 km/h (4 Bft)
15.02.2014 01:36 7,8 C 6,1 C 90 % 991,8 hPa 0,0 l/m 0 min 0 min 0,0 UV-I 0 W/m 23,2 km/h (4 Bft)
15.02.2014 01:38 7,9 C 6,1 C 90 % 991,7 hPa 0,0 l/m 0 min 0 min 0,0 UV-I 0 W/m 28,3 km/h (4 Bft)
15.02.2014 01:40 7,9 C 6,1 C 90 % 991,6 hPa 0,0 l/m 0 min 0 min 0,0 UV-I 0 W/m 23,2 km/h (4 Bft)
15.02.2014 01:42 7,9 C 6,1 C 89 % 991,5 hPa 0,0 l/m 0 min 0 min 0,0 UV-I 0 W/m 30,9 km/h (5 Bft)
15.02.2014 01:44 8,0 C 6,1 C 89 % 991,5 hPa 0,0 l/m 0 min 0 min 0,0 UV-I 0 W/m 28,3 km/h (4 Bft)
15.02.2014 01:46 8,0 C 6,1 C 89 % 991,4 hPa 0,0 l/m 0 min 0 min 0,0 UV-I 0 W/m 23,2 km/h (4 Bft)
15.02.2014 01:48 8,1 C 6,1 C 89 % 991,4 hPa 0,0 l/m 0 min 0 min 0,0 UV-I 0 W/m 25,7 km/h (4 Bft)
15.02.2014 01:50 8,1 C 6,1 C 89 % 991,4 hPa 0,0 l/m 0 min 0 min 0,0 UV-I 0 W/m 33,5 km/h (5 Bft)
15.02.2014 01:52 8,1 C 6,1 C 89 % 991,1 hPa 0,0 l/m 0 min 0 min 0,0 UV-I 0 W/m 28,3 km/h (4 Bft)
15.02.2014 01:54 8,2 C 6,1 C 89 % 990,8 hPa 0,0 l/m 0 min 0 min 0,0 UV-I 0 W/m 28,3 km/h (4 Bft)
15.02.2014 01:56 8,2 C 6,7 C 93 % 990,8 hPa 0,0 l/m 0 min 0 min 0,0 UV-I 0 W/m 36,0 km/h (5 Bft)
15.02.2014 01:58 8,2 C 6,7 C 89 % 990,7 hPa 0,0 l/m 0 min 0 min 0,0 UV-I 0 W/m 28,3 km/h (4 Bft)
15.02.2014 02:00 8,3 C 6,7 C 89 % 990,5 hPa 0,0 l/m 0 min 0 min 0,0 UV-I 0 W/m 30,9 km/h (5 Bft)
15.02.2014 02:02 8,3 C 6,7 C 89 % 990,5 hPa 0,0 l/m 0 min 0 min 0,0 UV-I 0 W/m 36,0 km/h (5 Bft)
15.02.2014 02:04 8,4 C 6,7 C 89 % 990,4 hPa 0,0 l/m 0 min 0 min 0,0 UV-I 0 W/m 33,5 km/h (5 Bft)
15.02.2014 02:06 8,4 C 6,7 C 89 % 990,6 hPa 0,0 l/m 0 min 0 min 0,0 UV-I 0 W/m 28,3 km/h (4 Bft)
15.02.2014 02:08 8,5 C 6,7 C 89 % 990,5 hPa 0,0 l/m 0 min 0 min 0,0 UV-I 0 W/m 30,9 km/h (5 Bft)
15.02.2014 02:10 8,6 C 6,7 C 89 % 990,3 hPa 0,0 l/m 0 min 0 min 0,0 UV-I 0 W/m 28,3 km/h (4 Bft)
15.02.2014 02:12 8,6 C 6,7 C 89 % 990,4 hPa 0,0 l/m 0 min 0 min 0,0 UV-I 0 W/m 25,7 km/h (4 Bft)
15.02.2014 02:14 8,7 C 6,7 C 89 % 990,3 hPa 0,0 l/m 0 min 0 min 0,0 UV-I 0 W/m 30,9 km/h (5 Bft)
15.02.2014 02:16 8,7 C 6,7 C 88 % 990,4 hPa 0,0 l/m 0 min 0 min 0,0 UV-I 0 W/m 33,5 km/h (5 Bft)
15.02.2014 02:18 8,7 C 6,7 C 88 % 990,5 hPa 0,0 l/m 0 min 0 min 0,0 UV-I 0 W/m 30,9 km/h (5 Bft)
15.02.2014 02:20 8,7 C 6,7 C 88 % 990,5 hPa 0,0 l/m 0 min 0 min 0,0 UV-I 0 W/m 30,9 km/h (5 Bft)
15.02.2014 02:22 8,8 C 6,7 C 88 % 990,5 hPa 0,0 l/m 0 min 0 min 0,0 UV-I 0 W/m 25,7 km/h (4 Bft)
15.02.2014 02:24 8,8 C 6,7 C 88 % 990,7 hPa 0,0 l/m 0 min 0 min 0,0 UV-I 0 W/m 18,0 km/h (3 Bft)
15.02.2014 02:26 8,8 C 6,7 C 88 % 990,7 hPa 0,0 l/m 0 min 0 min 0,0 UV-I 0 W/m 15,4 km/h (3 Bft)
15.02.2014 02:28 8,8 C 6,7 C 88 % 990,8 hPa 0,0 l/m 0 min 0 min 0,0 UV-I 0 W/m 15,4 km/h (3 Bft)
15.02.2014 02:30 8,8 C 6,7 C 88 % 990,8 hPa 0,0 l/m 0 min 0 min 0,0 UV-I 0 W/m 12,9 km/h (3 Bft)
15.02.2014 02:32 8,8 C 6,7 C 88 % 990,7 hPa 0,0 l/m 0 min 0 min 0,0 UV-I 0 W/m 12,9 km/h (3 Bft)
15.02.2014 02:34 8,8 C 6,7 C 88 % 990,5 hPa 0,0 l/m 0 min 0 min 0,0 UV-I 0 W/m 18,0 km/h (3 Bft)
15.02.2014 02:36 8,9 C 6,7 C 88 % 990,5 hPa 0,0 l/m 0 min 0 min 0,0 UV-I 0 W/m 7,7 km/h (2 Bft)
15.02.2014 02:38 8,9 C 6,7 C 88 % 990,8 hPa 0,0 l/m 0 min 0 min 0,0 UV-I 0 W/m 20,6 km/h (4 Bft)
15.02.2014 02:40 8,9 C 6,7 C 88 % 990,7 hPa 0,0 l/m 0 min 0 min 0,0 UV-I 0 W/m 10,3 km/h (2 Bft)
15.02.2014 02:42 8,9 C 7,2 C 88 % 990,7 hPa 0,0 l/m 0 min 0 min 0,0 UV-I 0 W/m 15,4 km/h (3 Bft)
15.02.2014 02:44 9,0 C 7,2 C 89 % 990,8 hPa 0,0 l/m 0 min 0 min 0,0 UV-I 0 W/m 10,3 km/h (2 Bft)
15.02.2014 02:46 9,1 C 7,8 C 89 % 990,8 hPa 0,0 l/m 0 min 0 min 0,0 UV-I 0 W/m 10,3 km/h (2 Bft)
15.02.2014 02:48 9,3 C 8,3 C 89 % 990,8 hPa 0,0 l/m 0 min 0 min 0,0 UV-I 0 W/m 28,3 km/h (4 Bft)
15.02.2014 02:50 9,4 C 8,9 C 89 % 990,9 hPa 0,0 l/m 0 min 0 min 0,0 UV-I 0 W/m 20,6 km/h (4 Bft)
15.02.2014 02:52 9,7 C 8,9 C 89 % 990,9 hPa 0,0 l/m 0 min 0 min 0,0 UV-I 0 W/m 23,2 km/h (4 Bft)
15.02.2014 02:54 9,9 C 8,9 C 89 % 990,9 hPa 0,0 l/m 0 min 0 min 0,0 UV-I 0 W/m 20,6 km/h (4 Bft)
15.02.2014 02:56 10,1 C 9,4 C 88 % 991,1 hPa 0,0 l/m 0 min 0 min 0,0 UV-I 0 W/m 20,6 km/h (4 Bft)
15.02.2014 02:58 10,4 C 10,0 C 87 % 991,4 hPa 0,0 l/m 0 min 0 min 0,0 UV-I 0 W/m 36,0 km/h (5 Bft)
15.02.2014 03:00 10,6 C 10,0 C 86 % 991,1 hPa 0,0 l/m 0 min 0 min 0,0 UV-I 0 W/m 25,7 km/h (4 Bft)
15.02.2014 03:02 10,8 C 10,0 C 85 % 991,2 hPa 0,0 l/m 0 min 0 min 0,0 UV-I 0 W/m 25,7 km/h (4 Bft)
15.02.2014 03:04 11,1 C 10,0 C 84 % 991,2 hPa 0,0 l/m 0 min 0 min 0,0 UV-I 0 W/m 33,5 km/h (5 Bft)
15.02.2014 03:06 11,2 C 10,0 C 84 % 991,2 hPa 0,0 l/m 0 min 0 min 0,0 UV-I 0 W/m 30,9 km/h (5 Bft)
15.02.2014 03:08 11,4 C 10,0 C 83 % 991,4 hPa 0,0 l/m 0 min 0 min 0,0 UV-I 0 W/m 33,5 km/h (5 Bft)
15.02.2014 03:10 11,6 C 10,0 C 82 % 991,4 hPa 0,0 l/m 0 min 0 min 0,0 UV-I 0 W/m 23,2 km/h (4 Bft)
15.02.2014 03:12 11,7 C 10,0 C 81 % 991,3 hPa 0,0 l/m 0 min 0 min 0,0 UV-I 0 W/m 18,0 km/h (3 Bft)
15.02.2014 03:14 11,8 C 10,0 C 80 % 991,3 hPa 0,0 l/m 0 min 0 min 0,0 UV-I 0 W/m 15,4 km/h (3 Bft)
15.02.2014 03:16 11,9 C 10,0 C 80 % 991,5 hPa 0,0 l/m 0 min 0 min 0,0 UV-I 0 W/m 23,2 km/h (4 Bft)
15.02.2014 03:18 12,0 C 10,0 C 79 % 991,5 hPa 0,0 l/m 0 min 0 min 0,0 UV-I 0 W/m 41,2 km/h (6 Bft)
15.02.2014 03:20 12,2 C 10,0 C 79 % 991,5 hPa 0,0 l/m 0 min 0 min 0,0 UV-I 0 W/m 30,9 km/h (5 Bft)
15.02.2014 03:22 12,3 C 10,0 C 78 % 991,4 hPa 0,0 l/m 0 min 0 min 0,0 UV-I 0 W/m 25,7 km/h (4 Bft)
15.02.2014 03:24 12,3 C 10,0 C 78 % 991,6 hPa 0,0 l/m 0 min 0 min 0,0 UV-I 0 W/m 23,2 km/h (4 Bft)
15.02.2014 03:26 12,3 C 10,0 C 78 % 991,6 hPa 0,0 l/m 0 min 0 min 0,0 UV-I 0 W/m 25,7 km/h (4 Bft)
15.02.2014 03:28 12,4 C 10,0 C 78 % 991,6 hPa 0,0 l/m 0 min 0 min 0,0 UV-I 0 W/m 30,9 km/h (5 Bft)
15.02.2014 03:30 12,4 C 10,0 C 77 % 991,8 hPa 0,0 l/m 0 min 0 min 0,0 UV-I 0 W/m 25,7 km/h (4 Bft)
15.02.2014 03:32 12,5 C 10,0 C 77 % 992,0 hPa 0,0 l/m 0 min 0 min 0,0 UV-I 0 W/m 18,0 km/h (3 Bft)
15.02.2014 03:34 12,5 C 10,0 C 77 % 992,0 hPa 0,0 l/m 0 min 0 min 0,0 UV-I 0 W/m 30,9 km/h (5 Bft)
15.02.2014 03:36 12,5 C 10,0 C 77 % 991,8 hPa 0,0 l/m 0 min 0 min 0,0 UV-I 0 W/m 36,0 km/h (5 Bft)
15.02.2014 03:38 12,6 C 10,0 C 77 % 991,9 hPa 0,0 l/m 0 min 0 min 0,0 UV-I 0 W/m 20,6 km/h (4 Bft)
15.02.2014 03:40 12,6 C 10,0 C 77 % 991,7 hPa 0,0 l/m 0 min 0 min 0,0 UV-I 0 W/m 28,3 km/h (4 Bft)
15.02.2014 03:42 12,6 C 10,0 C 77 % 991,9 hPa 0,0 l/m 0 min 0 min 0,0 UV-I 0 W/m 30,9 km/h (5 Bft)
15.02.2014 03:44 12,6 C 10,0 C 77 % 991,9 hPa 0,0 l/m 0 min 0 min 0,0 UV-I 0 W/m 18,0 km/h (3 Bft)
15.02.2014 03:46 12,6 C 10,0 C 77 % 992,2 hPa 0,0 l/m 0 min 0 min 0,0 UV-I 0 W/m 33,5 km/h (5 Bft)
15.02.2014 03:48 12,6 C 10,0 C 77 % 991,9 hPa 0,0 l/m 0 min 0 min 0,0 UV-I 0 W/m 30,9 km/h (5 Bft)
15.02.2014 03:50 12,6 C 10,0 C 77 % 992,1 hPa 0,0 l/m 0 min 0 min 0,0 UV-I 0 W/m 20,6 km/h (4 Bft)
15.02.2014 03:52 12,6 C 10,0 C 77 % 991,9 hPa 0,0 l/m 0 min 0 min 0,0 UV-I 0 W/m 23,2 km/h (4 Bft)
15.02.2014 03:54 12,6 C 10,0 C 77 % 991,9 hPa 0,0 l/m 0 min 0 min 0,0 UV-I 0 W/m 20,6 km/h (4 Bft)
15.02.2014 03:56 12,6 C 10,0 C 77 % 991,8 hPa 0,0 l/m 0 min 0 min 0,0 UV-I 0 W/m 33,5 km/h (5 Bft)
15.02.2014 03:58 12,6 C 10,0 C 77 % 991,8 hPa 0,0 l/m 0 min 0 min 0,0 UV-I 0 W/m 25,7 km/h (4 Bft)
15.02.2014 04:00 12,5 C 10,0 C 77 % 991,9 hPa 0,0 l/m 0 min 0 min 0,0 UV-I 0 W/m 20,6 km/h (4 Bft)
15.02.2014 04:02 12,5 C 10,0 C 77 % 992,0 hPa 0,0 l/m 0 min 0 min 0,0 UV-I 0 W/m 18,0 km/h (3 Bft)
15.02.2014 04:04 12,5 C 10,0 C 77 % 992,2 hPa 0,0 l/m 0 min 0 min 0,0 UV-I 0 W/m 23,2 km/h (4 Bft)
15.02.2014 04:06 12,4 C 10,0 C 77 % 992,0 hPa 0,0 l/m 0 min 0 min 0,0 UV-I 0 W/m 10,3 km/h (2 Bft)
15.02.2014 04:08 12,4 C 10,0 C 77 % 992,0 hPa 0,0 l/m 0 min 0 min 0,0 UV-I 0 W/m 28,3 km/h (4 Bft)
15.02.2014 04:10 12,4 C 10,0 C 77 % 992,0 hPa 0,0 l/m 0 min 0 min 0,0 UV-I 0 W/m 23,2 km/h (4 Bft)
15.02.2014 04:12 12,4 C 10,0 C 78 % 992,0 hPa 0,0 l/m 0 min 0 min 0,0 UV-I 0 W/m 10,3 km/h (2 Bft)
15.02.2014 04:14 12,4 C 10,0 C 78 % 992,1 hPa 0,0 l/m 0 min 0 min 0,0 UV-I 0 W/m 20,6 km/h (4 Bft)
15.02.2014 04:16 12,4 C 10,0 C 77 % 992,1 hPa 0,0 l/m 0 min 0 min 0,0 UV-I 0 W/m 18,0 km/h (3 Bft)
15.02.2014 04:18 12,4 C 10,0 C 78 % 992,0 hPa 0,0 l/m 0 min 0 min 0,0 UV-I 0 W/m 10,3 km/h (2 Bft)
15.02.2014 04:20 12,3 C 10,0 C 78 % 992,0 hPa 0,0 l/m 0 min 0 min 0,0 UV-I 0 W/m 12,9 km/h (3 Bft)
15.02.2014 04:22 12,3 C 10,0 C 78 % 992,2 hPa 0,0 l/m 0 min 0 min 0,0 UV-I 0 W/m 12,9 km/h (3 Bft)
15.02.2014 04:24 12,3 C 10,0 C 78 % 992,0 hPa 0,0 l/m 0 min 0 min 0,0 UV-I 0 W/m 7,7 km/h (2 Bft)
15.02.2014 04:26 12,3 C 9,4 C 78 % 992,1 hPa 0,0 l/m 0 min 0 min 0,0 UV-I 0 W/m 2,6 km/h (1 Bft)
15.02.2014 04:28 12,3 C 10,0 C 78 % 992,1 hPa 0,0 l/m 0 min 0 min 0,0 UV-I 0 W/m 25,7 km/h (4 Bft)
15.02.2014 04:30 12,2 C 10,0 C 78 % 992,2 hPa 0,0 l/m 0 min 0 min 0,0 UV-I 0 W/m 12,9 km/h (3 Bft)
15.02.2014 04:32 12,2 C 10,0 C 78 % 992,2 hPa 0,0 l/m 0 min 0 min 0,0 UV-I 0 W/m 15,4 km/h (3 Bft)
15.02.2014 04:34 12,2 C 10,0 C 78 % 992,2 hPa 0,0 l/m 0 min 0 min 0,0 UV-I 0 W/m 12,9 km/h (3 Bft)
15.02.2014 04:36 12,2 C 10,0 C 78 % 992,0 hPa 0,0 l/m 0 min 0 min 0,0 UV-I 0 W/m 23,2 km/h (4 Bft)
15.02.2014 04:38 12,2 C 10,0 C 78 % 992,1 hPa 0,0 l/m 0 min 0 min 0,0 UV-I 0 W/m 12,9 km/h (3 Bft)
15.02.2014 04:40 12,2 C 9,4 C 77 % 991,9 hPa 0,0 l/m 0 min 0 min 0,0 UV-I 0 W/m 25,7 km/h (4 Bft)
15.02.2014 04:42 12,2 C 9,4 C 77 % 991,8 hPa 0,0 l/m 0 min 0 min 0,0 UV-I 0 W/m 20,6 km/h (4 Bft)
15.02.2014 04:44 12,1 C 10,0 C 76 % 991,9 hPa 0,0 l/m 0 min 0 min 0,0 UV-I 0 W/m 23,2 km/h (4 Bft)
15.02.2014 04:46 12,1 C 10,0 C 75 % 991,7 hPa 0,0 l/m 0 min 0 min 0,0 UV-I 0 W/m 25,7 km/h (4 Bft)
15.02.2014 04:48 12,1 C 10,0 C 73 % 991,9 hPa 0,0 l/m 0 min 0 min 0,0 UV-I 0 W/m 30,9 km/h (5 Bft)
15.02.2014 04:50 12,1 C 10,0 C 72 % 992,0 hPa 0,0 l/m 0 min 0 min 0,0 UV-I 0 W/m 25,7 km/h (4 Bft)
15.02.2014 04:52 12,1 C 9,4 C 71 % 992,0 hPa 0,0 l/m 0 min 0 min 0,0 UV-I 0 W/m 36,0 km/h (5 Bft)
15.02.2014 04:54 12,1 C 9,4 C 70 % 992,1 hPa 0,0 l/m 0 min 0 min 0,0 UV-I 0 W/m 36,0 km/h (5 Bft)
15.02.2014 04:56 12,1 C 9,4 C 70 % 991,9 hPa 0,0 l/m 0 min 0 min 0,0 UV-I 0 W/m 38,6 km/h (5 Bft)
15.02.2014 04:58 12,1 C 9,4 C 69 % 991,9 hPa 0,0 l/m 0 min 0 min 0,0 UV-I 0 W/m 46,3 km/h (6 Bft)
15.02.2014 05:00 12,0 C 9,4 C 69 % 992,1 hPa 0,0 l/m 0 min 0 min 0,0 UV-I 0 W/m 43,8 km/h (6 Bft)
15.02.2014 05:02 12,1 C 9,4 C 68 % 992,3 hPa 0,0 l/m 0 min 0 min 0,0 UV-I 0 W/m 33,5 km/h (5 Bft)
15.02.2014 05:04 12,1 C 9,4 C 68 % 992,3 hPa 0,0 l/m 0 min 0 min 0,0 UV-I 0 W/m 18,0 km/h (3 Bft)
15.02.2014 05:06 12,1 C 9,4 C 68 % 992,1 hPa 0,0 l/m 0 min 0 min 0,0 UV-I 0 W/m 28,3 km/h (4 Bft)
15.02.2014 05:08 12,0 C 9,4 C 68 % 992,5 hPa 0,0 l/m 0 min 0 min 0,0 UV-I 0 W/m 25,7 km/h (4 Bft)
15.02.2014 05:10 12,0 C 9,4 C 68 % 992,4 hPa 0,0 l/m 0 min 0 min 0,0 UV-I 0 W/m 18,0 km/h (3 Bft)
15.02.2014 05:12 12,0 C 9,4 C 68 % 992,3 hPa 0,0 l/m 0 min 0 min 0,0 UV-I 0 W/m 20,6 km/h (4 Bft)
15.02.2014 05:14 12,0 C 9,4 C 68 % 992,3 hPa 0,0 l/m 0 min 0 min 0,0 UV-I 0 W/m 20,6 km/h (4 Bft)
15.02.2014 05:16 11,9 C 9,4 C 68 % 992,4 hPa 0,0 l/m 0 min 0 min 0,0 UV-I 0 W/m 20,6 km/h (4 Bft)
15.02.2014 05:18 11,9 C 9,4 C 68 % 992,4 hPa 0,0 l/m 0 min 0 min 0,0 UV-I 0 W/m 30,9 km/h (5 Bft)
15.02.2014 05:20 11,9 C 9,4 C 68 % 992,4 hPa 0,0 l/m 0 min 0 min 0,0 UV-I 0 W/m 15,4 km/h (3 Bft)
15.02.2014 05:22 11,9 C 8,9 C 68 % 992,3 hPa 0,0 l/m 0 min 0 min 0,0 UV-I 0 W/m 7,7 km/h (2 Bft)
15.02.2014 05:24 11,8 C 8,9 C 68 % 992,3 hPa 0,0 l/m 0 min 0 min 0,0 UV-I 0 W/m 18,0 km/h (3 Bft)
15.02.2014 05:26 11,8 C 8,9 C 69 % 992,3 hPa 0,0 l/m 0 min 0 min 0,0 UV-I 0 W/m 15,4 km/h (3 Bft)
15.02.2014 05:28 11,8 C 8,9 C 69 % 992,5 hPa 0,0 l/m 0 min 0 min 0,0 UV-I 0 W/m 18,0 km/h (3 Bft)
15.02.2014 05:30 11,7 C 8,9 C 69 % 992,5 hPa 0,0 l/m 0 min 0 min 0,0 UV-I 0 W/m 12,9 km/h (3 Bft)
15.02.2014 05:32 11,7 C 8,9 C 69 % 992,6 hPa 0,0 l/m 0 min 0 min 0,0 UV-I 0 W/m 7,7 km/h (2 Bft)
15.02.2014 05:34 11,7 C 8,9 C 69 % 992,6 hPa 0,0 l/m 0 min 0 min 0,0 UV-I 0 W/m 18,0 km/h (3 Bft)
15.02.2014 05:36 11,6 C 8,9 C 70 % 992,5 hPa 0,0 l/m 0 min 0 min 0,0 UV-I 0 W/m 20,6 km/h (4 Bft)
15.02.2014 05:38 11,6 C 8,9 C 70 % 992,7 hPa 0,0 l/m 0 min 0 min 0,0 UV-I 0 W/m 28,3 km/h (4 Bft)
15.02.2014 05:40 11,6 C 8,9 C 70 % 992,7 hPa 0,0 l/m 0 min 0 min 0,0 UV-I 0 W/m 28,3 km/h (4 Bft)
15.02.2014 05:42 11,6 C 9,4 C 70 % 992,7 hPa 0,0 l/m 0 min 0 min 0,0 UV-I 0 W/m 15,4 km/h (3 Bft)
15.02.2014 05:44 11,5 C 8,9 C 70 % 992,6 hPa 0,0 l/m 0 min 0 min 0,0 UV-I 0 W/m 15,4 km/h (3 Bft)
15.02.2014 05:46 11,5 C 8,9 C 70 % 992,7 hPa 0,0 l/m 0 min 0 min 0,0 UV-I 0 W/m 23,2 km/h (4 Bft)
15.02.2014 05:48 11,4 C 8,9 C 70 % 992,7 hPa 0,0 l/m 0 min 0 min 0,0 UV-I 0 W/m 23,2 km/h (4 Bft)
15.02.2014 05:50 11,4 C 8,9 C 70 % 992,9 hPa 0,0 l/m 0 min 0 min 0,0 UV-I 0 W/m 30,9 km/h (5 Bft)
15.02.2014 05:52 11,4 C 8,9 C 70 % 992,9 hPa 0,0 l/m 0 min 0 min 0,0 UV-I 0 W/m 23,2 km/h (4 Bft)
15.02.2014 05:54 11,4 C 8,9 C 70 % 993,0 hPa 0,0 l/m 0 min 0 min 0,0 UV-I 0 W/m 18,0 km/h (3 Bft)
15.02.2014 05:56 11,4 C 8,9 C 70 % 993,1 hPa 0,0 l/m 0 min 0 min 0,0 UV-I 0 W/m 30,9 km/h (5 Bft)
15.02.2014 05:58 11,4 C 8,9 C 70 % 992,8 hPa 0,0 l/m 0 min 0 min 0,0 UV-I 0 W/m 36,0 km/h (5 Bft)
15.02.2014 06:00 11,4 C 8,9 C 70 % 993,0 hPa 0,0 l/m 0 min 0 min 0,0 UV-I 0 W/m 23,2 km/h (4 Bft)
15.02.2014 06:02 11,4 C 9,4 C 70 % 992,9 hPa 0,0 l/m 0 min 0 min 0,0 UV-I 0 W/m 28,3 km/h (4 Bft)
15.02.2014 06:04 11,4 C 8,9 C 70 % 992,9 hPa 0,0 l/m 0 min 0 min 0,0 UV-I 0 W/m 20,6 km/h (4 Bft)
15.02.2014 06:06 11,4 C 8,9 C 70 % 992,8 hPa 0,0 l/m 0 min 0 min 0,0 UV-I 0 W/m 23,2 km/h (4 Bft)
15.02.2014 06:08 11,3 C 8,9 C 70 % 992,7 hPa 0,0 l/m 0 min 0 min 0,0 UV-I 0 W/m 15,4 km/h (3 Bft)
15.02.2014 06:10 11,3 C 8,9 C 70 % 992,8 hPa 0,0 l/m 0 min 0 min 0,0 UV-I 0 W/m 15,4 km/h (3 Bft)
15.02.2014 06:12 11,3 C 8,9 C 70 % 992,8 hPa 0,0 l/m 0 min 0 min 0,0 UV-I 0 W/m 25,7 km/h (4 Bft)
15.02.2014 06:14 11,3 C 8,9 C 70 % 993,0 hPa 0,0 l/m 0 min 0 min 0,0 UV-I 0 W/m 18,0 km/h (3 Bft)
15.02.2014 06:16 11,3 C 8,9 C 70 % 993,3 hPa 0,0 l/m 0 min 0 min 0,0 UV-I 0 W/m 33,5 km/h (5 Bft)
15.02.2014 06:18 11,3 C 8,9 C 70 % 993,3 hPa 0,0 l/m 0 min 0 min 0,0 UV-I 0 W/m 18,0 km/h (3 Bft)
15.02.2014 06:20 11,3 C 8,9 C 71 % 993,3 hPa 0,0 l/m 0 min 0 min 0,0 UV-I 0 W/m 33,5 km/h (5 Bft)
15.02.2014 06:22 11,3 C 9,4 C 71 % 993,3 hPa 0,0 l/m 0 min 0 min 0,0 UV-I 0 W/m 36,0 km/h (5 Bft)
15.02.2014 06:24 11,3 C 9,4 C 71 % 993,3 hPa 0,0 l/m 0 min 0 min 0,0 UV-I 0 W/m 20,6 km/h (4 Bft)
15.02.2014 06:26 11,3 C 9,4 C 71 % 993,4 hPa 0,0 l/m 0 min 0 min 0,0 UV-I 0 W/m 18,0 km/h (3 Bft)
15.02.2014 06:28 11,3 C 9,4 C 71 % 993,5 hPa 0,0 l/m 0 min 0 min 0,0 UV-I 0 W/m 30,9 km/h (5 Bft)
15.02.2014 06:30 11,3 C 8,9 C 71 % 993,4 hPa 0,0 l/m 0 min 0 min 0,0 UV-I 0 W/m 30,9 km/h (5 Bft)
15.02.2014 06:32 11,3 C 8,9 C 71 % 993,2 hPa 0,0 l/m 0 min 0 min 0,0 UV-I 0 W/m 18,0 km/h (3 Bft)
15.02.2014 06:34 11,3 C 8,9 C 71 % 993,4 hPa 0,0 l/m 0 min 0 min 0,0 UV-I 0 W/m 23,2 km/h (4 Bft)
15.02.2014 06:36 11,3 C 8,9 C 71 % 993,5 hPa 0,0 l/m 0 min 0 min 0,0 UV-I 0 W/m 28,3 km/h (4 Bft)
15.02.2014 06:38 11,3 C 8,9 C 71 % 993,6 hPa 0,2 l/m 0 min 0 min 0,0 UV-I 0 W/m 38,6 km/h (5 Bft)
15.02.2014 06:40 11,3 C 8,9 C 71 % 993,4 hPa 0,0 l/m 0 min 0 min 0,0 UV-I 0 W/m 25,7 km/h (4 Bft)
15.02.2014 06:42 11,3 C 8,9 C 71 % 993,3 hPa 0,0 l/m 0 min 0 min 0,0 UV-I 0 W/m 15,4 km/h (3 Bft)
15.02.2014 06:44 11,2 C 8,9 C 71 % 993,3 hPa 0,0 l/m 0 min 0 min 0,0 UV-I 0 W/m 20,6 km/h (4 Bft)
15.02.2014 06:46 11,2 C 8,9 C 71 % 993,2 hPa 0,0 l/m 0 min 0 min 0,0 UV-I 0 W/m 30,9 km/h (5 Bft)
15.02.2014 06:48 11,2 C 8,9 C 71 % 993,3 hPa 0,0 l/m 0 min 0 min 0,0 UV-I 0 W/m 25,7 km/h (4 Bft)
15.02.2014 06:50 11,2 C 8,9 C 71 % 993,2 hPa 0,0 l/m 0 min 0 min 0,0 UV-I 0 W/m 20,6 km/h (4 Bft)
15.02.2014 06:52 11,2 C 8,9 C 71 % 993,4 hPa 0,0 l/m 0 min 0 min 0,0 UV-I 0 W/m 25,7 km/h (4 Bft)
15.02.2014 06:54 11,2 C 8,9 C 71 % 993,5 hPa 0,0 l/m 0 min 0 min 0,0 UV-I 0 W/m 25,7 km/h (4 Bft)
15.02.2014 06:56 11,1 C 8,9 C 71 % 993,4 hPa 0,0 l/m 0 min 0 min 0,0 UV-I 0 W/m 25,7 km/h (4 Bft)
15.02.2014 06:58 11,1 C 8,9 C 71 % 993,5 hPa 0,0 l/m 0 min 0 min 0,0 UV-I 0 W/m 20,6 km/h (4 Bft)
15.02.2014 07:00 11,1 C 8,9 C 71 % 993,5 hPa 0,0 l/m 0 min 0 min 0,0 UV-I 0 W/m 36,0 km/h (5 Bft)
15.02.2014 07:02 11,1 C 8,9 C 71 % 993,5 hPa 0,0 l/m 0 min 0 min 0,0 UV-I 0 W/m 28,3 km/h (4 Bft)
15.02.2014 07:04 11,1 C 8,9 C 71 % 993,5 hPa 0,0 l/m 0 min 0 min 0,0 UV-I 0 W/m 15,4 km/h (3 Bft)
15.02.2014 07:06 11,1 C 8,9 C 71 % 993,4 hPa 0,0 l/m 0 min 0 min 0,0 UV-I 0 W/m 20,6 km/h (4 Bft)
15.02.2014 07:08 11,1 C 8,9 C 72 % 993,4 hPa 0,0 l/m 0 min 0 min 0,0 UV-I 0 W/m 20,6 km/h (4 Bft)
15.02.2014 07:10 11,0 C 8,9 C 72 % 993,4 hPa 0,0 l/m 0 min 0 min 0,0 UV-I 0 W/m 20,6 km/h (4 Bft)
15.02.2014 07:12 11,0 C 8,9 C 72 % 993,4 hPa 0,0 l/m 0 min 0 min 0,0 UV-I 0 W/m 28,3 km/h (4 Bft)
15.02.2014 07:14 11,0 C 8,3 C 72 % 993,4 hPa 0,0 l/m 0 min 0 min 0,0 UV-I 0 W/m 15,4 km/h (3 Bft)
15.02.2014 07:16 10,9 C 8,3 C 72 % 993,4 hPa 0,0 l/m 0 min 0 min 0,0 UV-I 0 W/m 20,6 km/h (4 Bft)
15.02.2014 07:18 10,9 C 8,3 C 72 % 993,3 hPa 0,0 l/m 0 min 0 min 0,0 UV-I 0 W/m 28,3 km/h (4 Bft)
15.02.2014 07:20 10,9 C 8,9 C 73 % 993,3 hPa 0,0 l/m 0 min 0 min 0,0 UV-I 0 W/m 41,2 km/h (6 Bft)
15.02.2014 07:22 10,9 C 8,9 C 73 % 993,4 hPa 0,0 l/m 0 min 0 min 0,0 UV-I 0 W/m 30,9 km/h (5 Bft)
15.02.2014 07:24 10,9 C 8,9 C 73 % 993,5 hPa 0,0 l/m 0 min 0 min 0,0 UV-I 0 W/m 23,2 km/h (4 Bft)
15.02.2014 07:26 10,8 C 8,9 C 73 % 993,4 hPa 0,0 l/m 0 min 0 min 0,0 UV-I 0 W/m 28,3 km/h (4 Bft)
15.02.2014 07:28 10,8 C 8,9 C 73 % 993,6 hPa 0,0 l/m 0 min 0 min 0,0 UV-I 0 W/m 18,0 km/h (3 Bft)
15.02.2014 07:30 10,8 C 8,9 C 73 % 993,6 hPa 0,0 l/m 0 min 0 min 0,0 UV-I 0 W/m 18,0 km/h (3 Bft)
15.02.2014 07:32 10,8 C 8,9 C 73 % 993,7 hPa 0,0 l/m 0 min 0 min 0,0 UV-I 0 W/m 28,3 km/h (4 Bft)
15.02.2014 07:34 10,8 C 8,9 C 73 % 993,8 hPa 0,0 l/m 0 min 0 min 0,0 UV-I 0 W/m 33,5 km/h (5 Bft)
15.02.2014 07:36 10,8 C 8,9 C 73 % 993,7 hPa 0,0 l/m 0 min 0 min 0,0 UV-I 0 W/m 54,1 km/h (7 Bft)
15.02.2014 07:38 10,9 C 8,9 C 73 % 993,8 hPa 0,0 l/m 0 min 0 min 0,0 UV-I 0 W/m 30,9 km/h (5 Bft)
15.02.2014 07:40 10,9 C 8,9 C 73 % 993,9 hPa 0,0 l/m 0 min 0 min 0,0 UV-I 0 W/m 38,6 km/h (5 Bft)
15.02.2014 07:42 10,9 C 8,9 C 73 % 993,6 hPa 0,0 l/m 0 min 0 min 0,0 UV-I 0 W/m 28,3 km/h (4 Bft)
15.02.2014 07:44 10,9 C 8,9 C 73 % 993,5 hPa 0,0 l/m 0 min 0 min 0,0 UV-I 0 W/m 23,2 km/h (4 Bft)
15.02.2014 07:46 10,9 C 8,9 C 73 % 993,5 hPa 0,0 l/m 0 min 0 min 0,0 UV-I 0 W/m 23,2 km/h (4 Bft)
15.02.2014 07:48 10,9 C 8,9 C 73 % 993,6 hPa 0,0 l/m 0 min 0 min 0,0 UV-I 0 W/m 20,6 km/h (4 Bft)
15.02.2014 07:50 10,9 C 8,9 C 73 % 993,6 hPa 0,0 l/m 0 min 0 min 0,0 UV-I 0 W/m 23,2 km/h (4 Bft)
15.02.2014 07:52 10,9 C 8,9 C 73 % 993,7 hPa 0,0 l/m 0 min 0 min 0,0 UV-I 0 W/m 25,7 km/h (4 Bft)
15.02.2014 07:54 10,9 C 8,9 C 73 % 993,8 hPa 0,0 l/m 0 min 2 min 0,0 UV-I 0 W/m 36,0 km/h (5 Bft)
15.02.2014 07:56 10,9 C 8,9 C 73 % 993,8 hPa 0,0 l/m 0 min 2 min 0,0 UV-I 0 W/m 28,3 km/h (4 Bft)
15.02.2014 07:58 10,9 C 8,9 C 73 % 993,8 hPa 0,0 l/m 0 min 0 min 0,0 UV-I 5 W/m 12,9 km/h (3 Bft)
15.02.2014 08:00 10,9 C 8,9 C 73 % 993,8 hPa 0,0 l/m 0 min 0 min 0,0 UV-I 5 W/m 18,0 km/h (3 Bft)
15.02.2014 08:02 10,9 C 8,9 C 73 % 993,8 hPa 0,0 l/m 0 min 0 min 0,0 UV-I 7 W/m 20,6 km/h (4 Bft)
15.02.2014 08:04 10,9 C 8,9 C 73 % 993,9 hPa 0,0 l/m 0 min 0 min 0,0 UV-I 7 W/m 20,6 km/h (4 Bft)
15.02.2014 08:06 10,9 C 8,9 C 73 % 993,8 hPa 0,0 l/m 0 min 0 min 0,0 UV-I 7 W/m 25,7 km/h (4 Bft)
15.02.2014 08:08 10,8 C 8,9 C 74 % 993,9 hPa 0,0 l/m 0 min 0 min 0,0 UV-I 7 W/m 25,7 km/h (4 Bft)
15.02.2014 08:10 10,8 C 8,9 C 74 % 993,9 hPa 0,0 l/m 0 min 0 min 0,0 UV-I 9 W/m 23,2 km/h (4 Bft)
15.02.2014 08:12 10,8 C 8,9 C 74 % 994,0 hPa 0,0 l/m 0 min 0 min 0,0 UV-I 11 W/m 12,9 km/h (3 Bft)
15.02.2014 08:14 10,8 C 8,9 C 74 % 994,1 hPa 0,0 l/m 0 min 0 min 0,0 UV-I 11 W/m 15,4 km/h (3 Bft)
15.02.2014 08:16 10,8 C 8,9 C 74 % 994,1 hPa 0,0 l/m 0 min 0 min 0,0 UV-I 14 W/m 12,9 km/h (3 Bft)
15.02.2014 08:18 10,8 C 8,9 C 74 % 994,2 hPa 0,0 l/m 0 min 0 min 0,0 UV-I 14 W/m 38,6 km/h (5 Bft)
15.02.2014 08:20 10,8 C 8,9 C 74 % 994,1 hPa 0,0 l/m 0 min 0 min 0,0 UV-I 14 W/m 25,7 km/h (4 Bft)
15.02.2014 08:22 10,8 C 8,9 C 74 % 994,2 hPa 0,0 l/m 0 min 0 min 0,0 UV-I 12 W/m 25,7 km/h (4 Bft)
15.02.2014 08:24 10,8 C 8,9 C 74 % 994,1 hPa 0,0 l/m 0 min 0 min 0,0 UV-I 12 W/m 38,6 km/h (5 Bft)
15.02.2014 08:26 10,9 C 9,4 C 74 % 994,0 hPa 0,0 l/m 0 min 0 min 0,0 UV-I 14 W/m 20,6 km/h (4 Bft)
15.02.2014 08:28 10,9 C 8,9 C 74 % 993,9 hPa 0,0 l/m 0 min 0 min 0,0 UV-I 18 W/m 18,0 km/h (3 Bft)
15.02.2014 08:30 10,9 C 8,9 C 73 % 994,1 hPa 0,0 l/m 0 min 0 min 0,0 UV-I 18 W/m 23,2 km/h (4 Bft)
15.02.2014 08:32 10,9 C 8,9 C 73 % 994,1 hPa 0,0 l/m 0 min 0 min 0,0 UV-I 14 W/m 20,6 km/h (4 Bft)
15.02.2014 08:34 10,9 C 9,4 C 73 % 994,0 hPa 0,0 l/m 0 min 0 min 0,0 UV-I 21 W/m 38,6 km/h (5 Bft)
15.02.2014 08:36 10,9 C 9,4 C 73 % 994,0 hPa 0,0 l/m 0 min 0 min 0,0 UV-I 25 W/m 15,4 km/h (3 Bft)
15.02.2014 08:38 10,9 C 8,9 C 73 % 994,1 hPa 0,0 l/m 0 min 0 min 0,0 UV-I 26 W/m 20,6 km/h (4 Bft)
15.02.2014 08:40 10,9 C 8,9 C 73 % 994,2 hPa 0,0 l/m 0 min 0 min 0,0 UV-I 28 W/m 33,5 km/h (5 Bft)
15.02.2014 08:42 10,9 C 8,9 C 73 % 994,2 hPa 0,0 l/m 0 min 0 min 0,0 UV-I 28 W/m 28,3 km/h (4 Bft)
15.02.2014 08:44 10,9 C 8,9 C 73 % 994,2 hPa 0,0 l/m 0 min 0 min 0,0 UV-I 25 W/m 36,0 km/h (5 Bft)
15.02.2014 08:46 10,9 C 8,9 C 73 % 994,3 hPa 0,0 l/m 0 min 0 min 0,0 UV-I 21 W/m 30,9 km/h (5 Bft)
15.02.2014 08:48 10,9 C 8,9 C 73 % 994,3 hPa 0,0 l/m 0 min 0 min 0,0 UV-I 19 W/m 20,6 km/h (4 Bft)
15.02.2014 08:50 10,9 C 8,9 C 73 % 994,3 hPa 0,0 l/m 0 min 0 min 0,0 UV-I 18 W/m 30,9 km/h (5 Bft)
15.02.2014 08:52 10,9 C 8,9 C 73 % 994,4 hPa 0,0 l/m 0 min 0 min 0,0 UV-I 16 W/m 38,6 km/h (5 Bft)
15.02.2014 08:54 10,9 C 8,9 C 73 % 994,4 hPa 0,0 l/m 0 min 0 min 0,0 UV-I 16 W/m 23,2 km/h (4 Bft)
15.02.2014 08:56 10,9 C 8,9 C 73 % 994,5 hPa 0,0 l/m 0 min 0 min 0,0 UV-I 18 W/m 30,9 km/h (5 Bft)
15.02.2014 08:58 10,8 C 8,9 C 73 % 994,5 hPa 0,0 l/m 0 min 0 min 0,0 UV-I 18 W/m 38,6 km/h (5 Bft)
15.02.2014 09:00 10,8 C 8,9 C 73 % 994,5 hPa 0,0 l/m 0 min 0 min 0,0 UV-I 18 W/m 25,7 km/h (4 Bft)
15.02.2014 09:02 10,8 C 8,9 C 73 % 994,4 hPa 0,0 l/m 0 min 0 min 0,0 UV-I 21 W/m 41,2 km/h (6 Bft)
15.02.2014 09:04 10,8 C 8,9 C 73 % 994,5 hPa 0,0 l/m 0 min 0 min 0,0 UV-I 21 W/m 56,6 km/h (7 Bft)
15.02.2014 09:06 10,8 C 8,9 C 73 % 994,5 hPa 0,0 l/m 0 min 0 min 0,0 UV-I 25 W/m 30,9 km/h (5 Bft)
15.02.2014 09:08 10,8 C 8,9 C 73 % 994,5 hPa 0,0 l/m 0 min 0 min 0,0 UV-I 33 W/m 33,5 km/h (5 Bft)
15.02.2014 09:10 10,7 C 8,9 C 73 % 994,4 hPa 0,0 l/m 0 min 0 min 0,0 UV-I 37 W/m 15,4 km/h (3 Bft)
15.02.2014 09:12 10,7 C 8,9 C 73 % 994,4 hPa 0,0 l/m 0 min 0 min 0,0 UV-I 42 W/m 18,0 km/h (3 Bft)
15.02.2014 09:14 10,7 C 8,9 C 74 % 994,4 hPa 0,0 l/m 0 min 0 min 0,0 UV-I 58 W/m 20,6 km/h (4 Bft)
15.02.2014 09:16 10,7 C 8,9 C 74 % 994,5 hPa 0,0 l/m 0 min 0 min 0,0 UV-I 62 W/m 18,0 km/h (3 Bft)
15.02.2014 09:18 10,7 C 8,9 C 74 % 994,5 hPa 0,0 l/m 0 min 0 min 0,0 UV-I 76 W/m 18,0 km/h (3 Bft)
15.02.2014 09:20 10,7 C 8,9 C 74 % 994,6 hPa 0,0 l/m 2 min 0 min 0,0 UV-I 127 W/m 20,6 km/h (4 Bft)
15.02.2014 09:22 10,6 C 8,9 C 74 % 994,7 hPa 0,0 l/m 2 min 0 min 0,0 UV-I 125 W/m 18,0 km/h (3 Bft)
15.02.2014 09:24 10,7 C 8,9 C 74 % 994,7 hPa 0,0 l/m 2 min 0 min 0,0 UV-I 165 W/m 30,9 km/h (5 Bft)
15.02.2014 09:26 10,7 C 8,9 C 74 % 994,8 hPa 0,0 l/m 2 min 0 min 0,0 UV-I 146 W/m 28,3 km/h (4 Bft)
15.02.2014 09:28 10,7 C 8,9 C 74 % 994,9 hPa 0,0 l/m 2 min 0 min 0,0 UV-I 151 W/m 12,9 km/h (3 Bft)
15.02.2014 09:30 10,8 C 9,4 C 75 % 994,9 hPa 0,0 l/m 2 min 0 min 0,0 UV-I 160 W/m 18,0 km/h (3 Bft)
15.02.2014 09:32 10,8 C 9,4 C 74 % 994,9 hPa 0,0 l/m 2 min 0 min 0,0 UV-I 142 W/m 25,7 km/h (4 Bft)
15.02.2014 09:34 10,9 C 9,4 C 74 % 994,8 hPa 0,0 l/m 2 min 0 min 0,0 UV-I 146 W/m 23,2 km/h (4 Bft)
15.02.2014 09:36 10,9 C 9,4 C 74 % 994,9 hPa 0,0 l/m 0 min 0 min 0,0 UV-I 105 W/m 20,6 km/h (4 Bft)
15.02.2014 09:38 10,9 C 9,4 C 74 % 994,8 hPa 0,0 l/m 0 min 0 min 0,0 UV-I 88 W/m 25,7 km/h (4 Bft)
15.02.2014 09:40 11,0 C 9,4 C 73 % 994,9 hPa 0,0 l/m 0 min 0 min 0,0 UV-I 90 W/m 15,4 km/h (3 Bft)
15.02.2014 09:42 11,0 C 9,4 C 73 % 995,1 hPa 0,0 l/m 0 min 0 min 0,0 UV-I 95 W/m 41,2 km/h (6 Bft)
15.02.2014 09:44 11,0 C 9,4 C 73 % 995,0 hPa 0,0 l/m 0 min 0 min 0,0 UV-I 98 W/m 38,6 km/h (5 Bft)
15.02.2014 09:46 11,0 C 9,4 C 73 % 994,9 hPa 0,0 l/m 0 min 0 min 0,0 UV-I 91 W/m 23,2 km/h (4 Bft)
15.02.2014 09:48 11,0 C 9,4 C 73 % 995,1 hPa 0,0 l/m 0 min 0 min 0,0 UV-I 91 W/m 23,2 km/h (4 Bft)
15.02.2014 09:50 11,0 C 9,4 C 73 % 995,1 hPa 0,0 l/m 0 min 0 min 0,0 UV-I 65 W/m 48,9 km/h (6 Bft)
15.02.2014 09:52 11,0 C 9,4 C 72 % 995,1 hPa 0,0 l/m 0 min 0 min 0,0 UV-I 77 W/m 36,0 km/h (5 Bft)
15.02.2014 09:54 11,1 C 9,4 C 72 % 995,1 hPa 0,0 l/m 0 min 0 min 0,0 UV-I 146 W/m 38,6 km/h (5 Bft)
15.02.2014 09:56 11,1 C 9,4 C 72 % 995,1 hPa 0,0 l/m 2 min 0 min 0,0 UV-I 195 W/m 36,0 km/h (5 Bft)
15.02.2014 09:58 11,1 C 9,4 C 72 % 995,1 hPa 0,0 l/m 2 min 0 min 0,0 UV-I 211 W/m 33,5 km/h (5 Bft)
15.02.2014 10:00 11,2 C 9,4 C 72 % 995,1 hPa 0,0 l/m 2 min 0 min 0,0 UV-I 207 W/m 25,7 km/h (4 Bft)
15.02.2014 10:02 11,2 C 9,4 C 72 % 995,1 hPa 0,0 l/m 2 min 0 min 0,0 UV-I 250 W/m 28,3 km/h (4 Bft)
15.02.2014 10:04 11,3 C 9,4 C 72 % 995,1 hPa 0,0 l/m 0 min 0 min 0,0 UV-I 144 W/m 28,3 km/h (4 Bft)
15.02.2014 10:06 11,3 C 9,4 C 72 % 995,1 hPa 0,0 l/m 2 min 0 min 0,0 UV-I 200 W/m 28,3 km/h (4 Bft)
15.02.2014 10:08 11,3 C 9,4 C 72 % 995,0 hPa 0,0 l/m 2 min 0 min 0,0 UV-I 188 W/m 38,6 km/h (5 Bft)
15.02.2014 10:10 11,3 C 9,4 C 72 % 995,1 hPa 0,0 l/m 2 min 0 min 0,0 UV-I 192 W/m 36,0 km/h (5 Bft)
15.02.2014 10:12 11,3 C 9,4 C 72 % 995,1 hPa 0,0 l/m 0 min 0 min 0,0 UV-I 79 W/m 28,3 km/h (4 Bft)
15.02.2014 10:14 11,3 C 9,4 C 72 % 995,2 hPa 0,0 l/m 0 min 0 min 0,0 UV-I 91 W/m 38,6 km/h (5 Bft)
15.02.2014 10:16 11,2 C 9,4 C 72 % 995,5 hPa 0,0 l/m 0 min 0 min 0,0 UV-I 88 W/m 36,0 km/h (5 Bft)
15.02.2014 10:18 11,2 C 9,4 C 72 % 995,4 hPa 0,0 l/m 0 min 0 min 0,0 UV-I 134 W/m 30,9 km/h (5 Bft)
15.02.2014 10:20 11,2 C 9,4 C 72 % 995,4 hPa 0,0 l/m 0 min 0 min 0,0 UV-I 156 W/m 23,2 km/h (4 Bft)
15.02.2014 10:22 11,2 C 9,4 C 72 % 995,5 hPa 0,0 l/m 2 min 0 min 0,0 UV-I 295 W/m 18,0 km/h (3 Bft)
15.02.2014 10:24 11,3 C 9,4 C 72 % 995,3 hPa 0,0 l/m 2 min 0 min 0,0 UV-I 265 W/m 30,9 km/h (5 Bft)
15.02.2014 10:26 11,3 C 9,4 C 72 % 995,3 hPa 0,0 l/m 2 min 0 min 0,0 UV-I 197 W/m 36,0 km/h (5 Bft)
15.02.2014 10:28 11,4 C 9,4 C 72 % 995,4 hPa 0,0 l/m 2 min 0 min 0,0 UV-I 192 W/m 38,6 km/h (5 Bft)
15.02.2014 10:30 11,4 C 9,4 C 71 % 995,4 hPa 0,0 l/m 0 min 0 min 0,0 UV-I 165 W/m 25,7 km/h (4 Bft)
15.02.2014 10:32 11,4 C 9,4 C 71 % 995,5 hPa 0,0 l/m 2 min 0 min 0,0 UV-I 309 W/m 43,8 km/h (6 Bft)
15.02.2014 10:34 11,4 C 9,4 C 71 % 995,6 hPa 0,0 l/m 2 min 0 min 0,0 UV-I 195 W/m 38,6 km/h (5 Bft)
15.02.2014 10:36 11,4 C 10,0 C 71 % 995,7 hPa 0,0 l/m 2 min 0 min 0,0 UV-I 327 W/m 46,3 km/h (6 Bft)
15.02.2014 10:38 11,5 C 10,0 C 71 % 995,8 hPa 0,0 l/m 2 min 0 min 0,0 UV-I 251 W/m 30,9 km/h (5 Bft)
15.02.2014 10:40 11,5 C 10,0 C 71 % 995,9 hPa 0,0 l/m 2 min 0 min 0,0 UV-I 206 W/m 51,5 km/h (7 Bft)
15.02.2014 10:42 11,4 C 10,0 C 71 % 995,9 hPa 0,0 l/m 0 min 0 min 0,0 UV-I 181 W/m 30,9 km/h (5 Bft)
15.02.2014 10:44 11,5 C 10,0 C 72 % 995,9 hPa 0,0 l/m 2 min 0 min 0,0 UV-I 294 W/m 25,7 km/h (4 Bft)
15.02.2014 10:46 11,6 C 10,0 C 71 % 995,8 hPa 0,0 l/m 2 min 0 min 0,0 UV-I 302 W/m 46,3 km/h (6 Bft)
15.02.2014 10:48 11,7 C 10,0 C 71 % 995,9 hPa 0,0 l/m 2 min 0 min 0,0 UV-I 374 W/m 28,3 km/h (4 Bft)
15.02.2014 10:50 11,7 C 10,0 C 71 % 995,8 hPa 0,0 l/m 2 min 0 min 0,0 UV-I 279 W/m 33,5 km/h (5 Bft)
15.02.2014 10:52 11,7 C 10,0 C 71 % 995,8 hPa 0,0 l/m 2 min 0 min 0,0 UV-I 279 W/m 28,3 km/h (4 Bft)
15.02.2014 10:54 11,7 C 10,0 C 71 % 995,9 hPa 0,0 l/m 0 min 0 min 0,0 UV-I 183 W/m 36,0 km/h (5 Bft)
15.02.2014 10:56 11,7 C 10,0 C 71 % 995,8 hPa 0,0 l/m 2 min 0 min 0,0 UV-I 415 W/m 38,6 km/h (5 Bft)
15.02.2014 10:58 11,8 C 10,6 C 71 % 995,8 hPa 0,0 l/m 2 min 0 min 0,0 UV-I 390 W/m 18,0 km/h (3 Bft)
15.02.2014 11:00 11,9 C 10,6 C 70 % 995,7 hPa 0,0 l/m 2 min 0 min 0,0 UV-I 332 W/m 43,8 km/h (6 Bft)
15.02.2014 11:02 11,9 C 10,6 C 70 % 995,7 hPa 0,0 l/m 2 min 0 min 0,0 UV-I 364 W/m 25,7 km/h (4 Bft)
15.02.2014 11:04 12,0 C 10,0 C 70 % 995,7 hPa 0,0 l/m 2 min 0 min 0,0 UV-I 364 W/m 33,5 km/h (5 Bft)
15.02.2014 11:06 12,0 C 10,6 C 70 % 995,6 hPa 0,0 l/m 2 min 0 min 0,0 UV-I 330 W/m 23,2 km/h (4 Bft)
15.02.2014 11:08 12,0 C 10,6 C 70 % 995,7 hPa 0,0 l/m 2 min 0 min 0,0 UV-I 330 W/m 12,9 km/h (3 Bft)
15.02.2014 11:10 12,1 C 10,6 C 70 % 995,7 hPa 0,0 l/m 2 min 0 min 0,0 UV-I 425 W/m 25,7 km/h (4 Bft)
15.02.2014 11:12 12,1 C 10,6 C 69 % 995,7 hPa 0,0 l/m 2 min 0 min 0,0 UV-I 413 W/m 36,0 km/h (5 Bft)
15.02.2014 11:14 12,1 C 10,6 C 69 % 995,6 hPa 0,0 l/m 2 min 0 min 0,0 UV-I 429 W/m 25,7 km/h (4 Bft)
15.02.2014 11:16 12,1 C 10,6 C 70 % 995,8 hPa 0,0 l/m 2 min 0 min 0,0 UV-I 429 W/m 28,3 km/h (4 Bft)
15.02.2014 11:18 12,1 C 10,6 C 70 % 995,6 hPa 0,0 l/m 2 min 0 min 0,0 UV-I 422 W/m 25,7 km/h (4 Bft)
15.02.2014 11:20 12,1 C 10,6 C 69 % 995,6 hPa 0,0 l/m 2 min 0 min 0,0 UV-I 422 W/m 30,9 km/h (5 Bft)
15.02.2014 11:25 12,0 C 10,6 C 69 % 995,6 hPa 0,0 l/m 2 min 0 min 0,0 UV-I 264 W/m 48,9 km/h (6 Bft)
15.02.2014 11:30 12,0 C 10,6 C 68 % 995,8 hPa 0,0 l/m 2 min 0 min 0,0 UV-I 299 W/m 38,6 km/h (5 Bft)
15.02.2014 11:35 11,9 C 10,6 C 68 % 995,7 hPa 0,0 l/m 0 min 0 min 0,0 UV-I 225 W/m 46,3 km/h (6 Bft)
15.02.2014 11:40 11,9 C 10,6 C 68 % 995,9 hPa 0,0 l/m 2 min 0 min 0,0 UV-I 243 W/m 10,3 km/h (2 Bft)
15.02.2014 11:42 11,9 C 10,6 C 68 % 995,9 hPa 0,0 l/m 2 min 0 min 0,0 UV-I 269 W/m 41,2 km/h (6 Bft)
15.02.2014 11:44 11,9 C 10,6 C 68 % 995,8 hPa 0,0 l/m 2 min 0 min 0,0 UV-I 320 W/m 18,0 km/h (3 Bft)
15.02.2014 11:46 12,0 C 11,1 C 68 % 995,8 hPa 0,0 l/m 2 min 0 min 0,0 UV-I 548 W/m 43,8 km/h (6 Bft)
15.02.2014 11:48 12,2 C 11,1 C 68 % 995,8 hPa 0,0 l/m 2 min 0 min 0,0 UV-I 527 W/m 41,2 km/h (6 Bft)
15.02.2014 11:50 12,3 C 11,1 C 67 % 995,9 hPa 0,0 l/m 2 min 0 min 0,0 UV-I 497 W/m 38,6 km/h (5 Bft)
15.02.2014 11:52 12,4 C 11,1 C 67 % 995,9 hPa 0,0 l/m 2 min 0 min 0,0 UV-I 311 W/m 28,3 km/h (4 Bft)
15.02.2014 11:54 12,4 C 11,1 C 67 % 996,0 hPa 0,0 l/m 2 min 0 min 0,0 UV-I 269 W/m 28,3 km/h (4 Bft)
15.02.2014 11:56 12,3 C 11,1 C 66 % 996,1 hPa 0,0 l/m 2 min 0 min 0,0 UV-I 264 W/m 36,0 km/h (5 Bft)
15.02.2014 11:58 12,2 C 11,1 C 67 % 996,1 hPa 0,0 l/m 2 min 0 min 0,0 UV-I 239 W/m 46,3 km/h (6 Bft)
15.02.2014 12:00 12,2 C 11,1 C 67 % 996,1 hPa 0,0 l/m 0 min 0 min 0,0 UV-I 214 W/m 30,9 km/h (5 Bft)
15.02.2014 12:02 12,2 C 11,1 C 67 % 996,1 hPa 0,0 l/m 2 min 0 min 0,0 UV-I 260 W/m 30,9 km/h (5 Bft)
15.02.2014 12:04 12,2 C 10,6 C 66 % 996,1 hPa 0,0 l/m 2 min 0 min 0,0 UV-I 283 W/m 38,6 km/h (5 Bft)
15.02.2014 12:06 12,2 C 11,1 C 67 % 996,1 hPa 0,0 l/m 2 min 0 min 0,0 UV-I 411 W/m 36,0 km/h (5 Bft)
15.02.2014 12:08 12,2 C 11,1 C 66 % 996,2 hPa 0,0 l/m 2 min 0 min 0,0 UV-I 288 W/m 28,3 km/h (4 Bft)
15.02.2014 12:10 12,2 C 11,1 C 66 % 996,1 hPa 0,0 l/m 2 min 0 min 0,0 UV-I 281 W/m 33,5 km/h (5 Bft)
15.02.2014 12:12 12,2 C 11,1 C 66 % 996,3 hPa 0,0 l/m 2 min 0 min 0,0 UV-I 339 W/m 36,0 km/h (5 Bft)
15.02.2014 12:14 12,3 C 11,1 C 66 % 996,2 hPa 0,0 l/m 2 min 0 min 0,0 UV-I 309 W/m 36,0 km/h (5 Bft)
15.02.2014 12:16 12,3 C 11,1 C 66 % 996,3 hPa 0,0 l/m 0 min 0 min 0,0 UV-I 241 W/m 25,7 km/h (4 Bft)
15.02.2014 12:18 12,2 C 11,1 C 66 % 996,3 hPa 0,0 l/m 0 min 0 min 0,0 UV-I 241 W/m 36,0 km/h (5 Bft)
15.02.2014 12:20 12,2 C 11,1 C 65 % 996,3 hPa 0,0 l/m 0 min 0 min 0,0 UV-I 206 W/m 33,5 km/h (5 Bft)
15.02.2014 12:22 12,1 C 11,1 C 65 % 996,3 hPa 0,0 l/m 0 min 0 min 0,0 UV-I 220 W/m 23,2 km/h (4 Bft)
15.02.2014 12:24 12,1 C 11,1 C 65 % 996,3 hPa 0,0 l/m 0 min 0 min 0,0 UV-I 213 W/m 36,0 km/h (5 Bft)
15.02.2014 12:26 12,1 C 11,1 C 65 % 996,3 hPa 0,0 l/m 0 min 0 min 0,0 UV-I 229 W/m 36,0 km/h (5 Bft)
15.02.2014 12:28 12,1 C 11,1 C 66 % 996,4 hPa 0,0 l/m 2 min 0 min 0,0 UV-I 292 W/m 18,0 km/h (3 Bft)
15.02.2014 12:30 12,1 C 11,1 C 66 % 996,4 hPa 0,0 l/m 2 min 0 min 0,0 UV-I 267 W/m 46,3 km/h (6 Bft)
15.02.2014 12:32 12,1 C 11,1 C 64 % 996,4 hPa 0,0 l/m 2 min 0 min 0,0 UV-I 271 W/m 28,3 km/h (4 Bft)
15.02.2014 12:34 12,2 C 11,1 C 65 % 996,5 hPa 0,0 l/m 2 min 0 min 0,0 UV-I 359 W/m 20,6 km/h (4 Bft)
15.02.2014 12:36 12,3 C 11,1 C 66 % 996,5 hPa 0,0 l/m 2 min 0 min 0,0 UV-I 378 W/m 30,9 km/h (5 Bft)
15.02.2014 12:38 12,3 C 11,1 C 65 % 996,5 hPa 0,0 l/m 2 min 0 min 0,0 UV-I 299 W/m 38,6 km/h (5 Bft)
15.02.2014 12:40 12,4 C 11,1 C 65 % 996,4 hPa 0,0 l/m 0 min 0 min 0,0 UV-I 195 W/m 38,6 km/h (5 Bft)
15.02.2014 12:42 12,4 C 11,1 C 65 % 996,4 hPa 0,0 l/m 2 min 0 min 0,0 UV-I 359 W/m 25,7 km/h (4 Bft)
15.02.2014 12:44 12,4 C 11,1 C 65 % 996,4 hPa 0,0 l/m 2 min 0 min 0,0 UV-I 455 W/m 15,4 km/h (3 Bft)
15.02.2014 12:46 12,4 C 11,1 C 64 % 996,3 hPa 0,0 l/m 2 min 0 min 0,0 UV-I 455 W/m 38,6 km/h (5 Bft)
15.02.2014 12:48 12,4 C 11,1 C 64 % 996,6 hPa 0,0 l/m 2 min 0 min 0,0 UV-I 469 W/m 36,0 km/h (5 Bft)
15.02.2014 12:50 12,5 C 11,1 C 64 % 996,6 hPa 0,0 l/m 2 min 0 min 0,0 UV-I 436 W/m 30,9 km/h (5 Bft)
15.02.2014 12:52 12,6 C 11,7 C 64 % 996,5 hPa 0,0 l/m 2 min 0 min 0,0 UV-I 478 W/m 36,0 km/h (5 Bft)
15.02.2014 12:54 12,6 C 11,7 C 63 % 996,4 hPa 0,0 l/m 2 min 0 min 0,5 UV-I 459 W/m 54,1 km/h (7 Bft)
15.02.2014 12:56 12,6 C 11,1 C 63 % 996,7 hPa 0,0 l/m 2 min 0 min 0,5 UV-I 457 W/m 25,7 km/h (4 Bft)
15.02.2014 12:58 12,7 C 11,1 C 63 % 996,4 hPa 0,0 l/m 2 min 0 min 0,0 UV-I 399 W/m 33,5 km/h (5 Bft)
15.02.2014 13:00 12,6 C 11,1 C 63 % 996,5 hPa 0,0 l/m 2 min 0 min 0,0 UV-I 352 W/m 25,7 km/h (4 Bft)
15.02.2014 13:02 12,6 C 11,1 C 63 % 996,4 hPa 0,0 l/m 2 min 0 min 0,0 UV-I 302 W/m 28,3 km/h (4 Bft)
15.02.2014 13:04 12,6 C 11,1 C 63 % 996,4 hPa 0,0 l/m 0 min 0 min 0,0 UV-I 241 W/m 30,9 km/h (5 Bft)
15.02.2014 13:06 12,4 C 11,1 C 63 % 996,4 hPa 0,0 l/m 2 min 0 min 0,0 UV-I 251 W/m 28,3 km/h (4 Bft)
15.02.2014 13:08 12,3 C 11,1 C 63 % 996,5 hPa 0,0 l/m 0 min 0 min 0,0 UV-I 216 W/m 25,7 km/h (4 Bft)
15.02.2014 13:10 12,2 C 10,6 C 62 % 996,3 hPa 0,0 l/m 0 min 0 min 0,0 UV-I 232 W/m 36,0 km/h (5 Bft)
15.02.2014 13:12 12,2 C 11,1 C 63 % 996,3 hPa 0,0 l/m 2 min 0 min 0,0 UV-I 269 W/m 25,7 km/h (4 Bft)
15.02.2014 13:14 12,2 C 11,1 C 64 % 996,3 hPa 0,0 l/m 0 min 0 min 0,0 UV-I 220 W/m 36,0 km/h (5 Bft)
15.02.2014 13:16 12,3 C 11,1 C 64 % 996,5 hPa 0,0 l/m 2 min 0 min 0,0 UV-I 341 W/m 20,6 km/h (4 Bft)
15.02.2014 13:18 12,4 C 11,1 C 64 % 996,4 hPa 0,0 l/m 2 min 0 min 0,0 UV-I 304 W/m 33,5 km/h (5 Bft)
15.02.2014 13:20 12,4 C 11,1 C 63 % 996,3 hPa 0,0 l/m 2 min 0 min 0,0 UV-I 297 W/m 33,5 km/h (5 Bft)
15.02.2014 13:22 12,4 C 11,1 C 63 % 996,3 hPa 0,0 l/m 2 min 0 min 0,0 UV-I 357 W/m 28,3 km/h (4 Bft)
15.02.2014 13:24 12,4 C 11,1 C 64 % 996,4 hPa 0,0 l/m 2 min 0 min 0,0 UV-I 350 W/m 28,3 km/h (4 Bft)
15.02.2014 13:26 12,4 C 11,1 C 64 % 996,4 hPa 0,0 l/m 2 min 0 min 0,0 UV-I 287 W/m 46,3 km/h (6 Bft)
15.02.2014 13:28 12,4 C 11,1 C 63 % 996,4 hPa 0,0 l/m 2 min 0 min 0,0 UV-I 241 W/m 54,1 km/h (7 Bft)
15.02.2014 13:30 12,4 C 11,1 C 64 % 996,4 hPa 0,0 l/m 2 min 0 min 0,0 UV-I 320 W/m 23,2 km/h (4 Bft)
15.02.2014 13:32 12,4 C 11,7 C 64 % 996,4 hPa 0,0 l/m 2 min 0 min 0,0 UV-I 299 W/m 15,4 km/h (3 Bft)
15.02.2014 13:34 12,4 C 11,1 C 64 % 996,6 hPa 0,0 l/m 2 min 0 min 0,0 UV-I 262 W/m 33,5 km/h (5 Bft)
15.02.2014 13:36 12,3 C 11,1 C 64 % 996,6 hPa 0,0 l/m 2 min 0 min 0,0 UV-I 257 W/m 41,2 km/h (6 Bft)
15.02.2014 13:38 12,3 C 11,1 C 65 % 996,4 hPa 0,0 l/m 2 min 0 min 0,0 UV-I 283 W/m 38,6 km/h (5 Bft)
15.02.2014 13:40 12,4 C 11,7 C 65 % 996,6 hPa 0,0 l/m 2 min 0 min 0,0 UV-I 276 W/m 25,7 km/h (4 Bft)
15.02.2014 13:42 12,4 C 11,7 C 65 % 996,5 hPa 0,0 l/m 2 min 0 min 0,0 UV-I 267 W/m 25,7 km/h (4 Bft)
15.02.2014 13:44 12,4 C 11,7 C 66 % 996,5 hPa 0,0 l/m 2 min 0 min 0,0 UV-I 283 W/m 20,6 km/h (4 Bft)
15.02.2014 13:46 12,5 C 11,7 C 65 % 996,4 hPa 0,0 l/m 2 min 0 min 0,0 UV-I 265 W/m 33,5 km/h (5 Bft)
15.02.2014 13:48 12,5 C 11,7 C 64 % 996,4 hPa 0,0 l/m 2 min 0 min 0,0 UV-I 265 W/m 20,6 km/h (4 Bft)
15.02.2014 13:50 12,5 C 11,7 C 63 % 996,4 hPa 0,0 l/m 2 min 0 min 0,0 UV-I 250 W/m 30,9 km/h (5 Bft)
15.02.2014 13:52 12,4 C 11,1 C 63 % 996,5 hPa 0,0 l/m 2 min 0 min 0,0 UV-I 237 W/m 41,2 km/h (6 Bft)
15.02.2014 13:54 12,4 C 11,1 C 64 % 996,4 hPa 0,0 l/m 0 min 0 min 0,0 UV-I 200 W/m 28,3 km/h (4 Bft)
15.02.2014 13:56 12,4 C 11,1 C 64 % 996,7 hPa 0,0 l/m 2 min 0 min 0,0 UV-I 248 W/m 51,5 km/h (7 Bft)
15.02.2014 13:58 12,3 C 11,1 C 63 % 996,6 hPa 0,0 l/m 2 min 0 min 0,0 UV-I 236 W/m 33,5 km/h (5 Bft)
15.02.2014 14:00 12,3 C 11,1 C 63 % 996,6 hPa 0,0 l/m 0 min 0 min 0,0 UV-I 213 W/m 38,6 km/h (5 Bft)
15.02.2014 14:02 12,2 C 11,1 C 63 % 996,5 hPa 0,0 l/m 0 min 0 min 0,0 UV-I 176 W/m 38,6 km/h (5 Bft)
15.02.2014 14:04 12,2 C 11,1 C 63 % 996,5 hPa 0,0 l/m 0 min 0 min 0,0 UV-I 163 W/m 20,6 km/h (4 Bft)
15.02.2014 14:06 12,2 C 11,1 C 63 % 996,5 hPa 0,0 l/m 0 min 0 min 0,0 UV-I 165 W/m 43,8 km/h (6 Bft)
15.02.2014 14:08 12,1 C 11,1 C 63 % 996,5 hPa 0,0 l/m 0 min 0 min 0,0 UV-I 179 W/m 20,6 km/h (4 Bft)
15.02.2014 14:10 12,1 C 11,1 C 64 % 996,5 hPa 0,0 l/m 0 min 0 min 0,0 UV-I 181 W/m 33,5 km/h (5 Bft)
15.02.2014 14:12 12,1 C 11,1 C 64 % 996,5 hPa 0,0 l/m 0 min 0 min 0,0 UV-I 183 W/m 33,5 km/h (5 Bft)
15.02.2014 14:14 12,1 C 11,1 C 64 % 996,6 hPa 0,0 l/m 0 min 0 min 0,0 UV-I 200 W/m 43,8 km/h (6 Bft)
15.02.2014 14:16 12,1 C 11,1 C 63 % 996,6 hPa 0,0 l/m 0 min 0 min 0,0 UV-I 220 W/m 25,7 km/h (4 Bft)
15.02.2014 14:18 12,1 C 11,1 C 64 % 996,6 hPa 0,0 l/m 0 min 0 min 0,0 UV-I 213 W/m 28,3 km/h (4 Bft)
15.02.2014 14:20 12,1 C 11,1 C 64 % 996,6 hPa 0,0 l/m 0 min 0 min 0,0 UV-I 186 W/m 20,6 km/h (4 Bft)
15.02.2014 14:22 12,1 C 11,1 C 64 % 996,7 hPa 0,0 l/m 0 min 0 min 0,0 UV-I 178 W/m 18,0 km/h (3 Bft)
15.02.2014 14:24 12,1 C 11,1 C 64 % 996,7 hPa 0,0 l/m 0 min 0 min 0,0 UV-I 176 W/m 36,0 km/h (5 Bft)
15.02.2014 14:26 12,1 C 11,1 C 64 % 996,7 hPa 0,0 l/m 0 min 0 min 0,0 UV-I 192 W/m 51,5 km/h (7 Bft)
15.02.2014 14:28 12,1 C 11,1 C 64 % 996,7 hPa 0,0 l/m 0 min 0 min 0,0 UV-I 197 W/m 12,9 km/h (3 Bft)
15.02.2014 14:30 12,1 C 11,1 C 64 % 996,8 hPa 0,0 l/m 0 min 0 min 0,0 UV-I 181 W/m 30,9 km/h (5 Bft)
15.02.2014 14:32 12,1 C 11,1 C 63 % 996,7 hPa 0,0 l/m 0 min 0 min 0,0 UV-I 174 W/m 18,0 km/h (3 Bft)
15.02.2014 14:34 12,1 C 11,1 C 63 % 996,7 hPa 0,0 l/m 0 min 0 min 0,0 UV-I 171 W/m 30,9 km/h (5 Bft)
15.02.2014 14:36 12,1 C 11,1 C 63 % 996,6 hPa 0,0 l/m 0 min 0 min 0,0 UV-I 171 W/m 30,9 km/h (5 Bft)
15.02.2014 14:38 12,1 C 11,1 C 62 % 996,8 hPa 0,0 l/m 0 min 0 min 0,0 UV-I 188 W/m 33,5 km/h (5 Bft)
15.02.2014 14:40 12,1 C 11,1 C 63 % 996,8 hPa 0,0 l/m 2 min 0 min 0,0 UV-I 213 W/m 33,5 km/h (5 Bft)
15.02.2014 14:42 12,1 C 11,1 C 63 % 996,7 hPa 0,0 l/m 2 min 0 min 0,0 UV-I 221 W/m 15,4 km/h (3 Bft)
15.02.2014 14:44 12,1 C 11,1 C 63 % 996,8 hPa 0,0 l/m 2 min 0 min 0,0 UV-I 206 W/m 28,3 km/h (4 Bft)
15.02.2014 14:46 12,1 C 11,1 C 63 % 996,6 hPa 0,0 l/m 0 min 0 min 0,0 UV-I 193 W/m 23,2 km/h (4 Bft)
15.02.2014 14:48 12,1 C 11,1 C 62 % 996,7 hPa 0,0 l/m 0 min 0 min 0,0 UV-I 186 W/m 28,3 km/h (4 Bft)
15.02.2014 14:50 12,1 C 11,1 C 62 % 996,7 hPa 0,0 l/m 0 min 0 min 0,0 UV-I 178 W/m 30,9 km/h (5 Bft)
15.02.2014 14:52 12,0 C 10,6 C 62 % 996,8 hPa 0,0 l/m 0 min 0 min 0,0 UV-I 162 W/m 25,7 km/h (4 Bft)
15.02.2014 14:54 12,0 C 10,6 C 62 % 996,8 hPa 0,0 l/m 0 min 0 min 0,0 UV-I 162 W/m 23,2 km/h (4 Bft)
15.02.2014 14:56 11,9 C 10,6 C 63 % 996,8 hPa 0,0 l/m 0 min 0 min 0,0 UV-I 178 W/m 36,0 km/h (5 Bft)
15.02.2014 14:58 11,9 C 10,6 C 63 % 996,8 hPa 0,0 l/m 0 min 0 min 0,0 UV-I 188 W/m 36,0 km/h (5 Bft)
15.02.2014 15:00 11,9 C 10,6 C 63 % 996,9 hPa 0,0 l/m 2 min 0 min 0,0 UV-I 211 W/m 15,4 km/h (3 Bft)
15.02.2014 15:02 12,0 C 11,1 C 64 % 996,8 hPa 0,0 l/m 0 min 0 min 0,0 UV-I 185 W/m 18,0 km/h (3 Bft)
15.02.2014 15:04 12,0 C 11,1 C 64 % 996,8 hPa 0,0 l/m 0 min 0 min 0,0 UV-I 162 W/m 23,2 km/h (4 Bft)
15.02.2014 15:06 12,0 C 10,6 C 64 % 996,7 hPa 0,0 l/m 0 min 0 min 0,0 UV-I 153 W/m 25,7 km/h (4 Bft)
15.02.2014 15:08 11,9 C 10,6 C 63 % 996,7 hPa 0,0 l/m 0 min 0 min 0,0 UV-I 155 W/m 43,8 km/h (6 Bft)
15.02.2014 15:10 11,9 C 10,6 C 64 % 996,7 hPa 0,0 l/m 0 min 0 min 0,0 UV-I 151 W/m 18,0 km/h (3 Bft)
15.02.2014 15:12 11,9 C 10,6 C 63 % 996,7 hPa 0,0 l/m 0 min 0 min 0,0 UV-I 141 W/m 28,3 km/h (4 Bft)
15.02.2014 15:14 11,9 C 10,6 C 63 % 996,9 hPa 0,0 l/m 0 min 0 min 0,0 UV-I 141 W/m 28,3 km/h (4 Bft)
15.02.2014 15:16 11,9 C 10,6 C 63 % 996,8 hPa 0,0 l/m 0 min 0 min 0,0 UV-I 142 W/m 18,0 km/h (3 Bft)
15.02.2014 15:18 11,8 C 10,6 C 63 % 996,9 hPa 0,0 l/m 0 min 0 min 0,0 UV-I 144 W/m 38,6 km/h (5 Bft)
15.02.2014 15:20 11,8 C 10,6 C 63 % 996,8 hPa 0,0 l/m 0 min 0 min 0,0 UV-I 146 W/m 25,7 km/h (4 Bft)
15.02.2014 15:22 11,8 C 10,6 C 63 % 996,8 hPa 0,0 l/m 0 min 0 min 0,0 UV-I 153 W/m 23,2 km/h (4 Bft)
15.02.2014 15:24 11,8 C 10,6 C 64 % 997,1 hPa 0,0 l/m 0 min 0 min 0,0 UV-I 158 W/m 18,0 km/h (3 Bft)
15.02.2014 15:26 11,8 C 10,6 C 64 % 997,0 hPa 0,0 l/m 0 min 0 min 0,0 UV-I 146 W/m 33,5 km/h (5 Bft)
15.02.2014 15:28 11,8 C 10,6 C 63 % 996,8 hPa 0,0 l/m 0 min 0 min 0,0 UV-I 139 W/m 36,0 km/h (5 Bft)
15.02.2014 15:30 11,8 C 10,6 C 63 % 997,1 hPa 0,0 l/m 0 min 0 min 0,0 UV-I 144 W/m 46,3 km/h (6 Bft)
15.02.2014 15:32 11,8 C 10,6 C 61 % 997,1 hPa 0,0 l/m 0 min 0 min 0,0 UV-I 141 W/m 43,8 km/h (6 Bft)
15.02.2014 15:34 11,7 C 10,6 C 61 % 997,2 hPa 0,0 l/m 0 min 0 min 0,0 UV-I 141 W/m 30,9 km/h (5 Bft)
15.02.2014 15:36 11,7 C 10,6 C 61 % 997,2 hPa 0,0 l/m 0 min 0 min 0,0 UV-I 142 W/m 23,2 km/h (4 Bft)
15.02.2014 15:38 11,7 C 10,6 C 60 % 997,2 hPa 0,0 l/m 0 min 0 min 0,0 UV-I 155 W/m 20,6 km/h (4 Bft)
15.02.2014 15:40 11,7 C 10,6 C 61 % 997,3 hPa 0,0 l/m 2 min 0 min 0,0 UV-I 169 W/m 25,7 km/h (4 Bft)
15.02.2014 15:42 11,6 C 10,6 C 61 % 997,2 hPa 0,0 l/m 0 min 0 min 0,0 UV-I 146 W/m 18,0 km/h (3 Bft)
15.02.2014 15:44 11,6 C 10,6 C 61 % 997,2 hPa 0,0 l/m 0 min 0 min 0,0 UV-I 142 W/m 25,7 km/h (4 Bft)
15.02.2014 15:46 11,6 C 10,0 C 61 % 997,2 hPa 0,0 l/m 0 min 0 min 0,0 UV-I 125 W/m 25,7 km/h (4 Bft)
15.02.2014 15:48 11,6 C 10,0 C 61 % 997,2 hPa 0,0 l/m 0 min 0 min 0,0 UV-I 114 W/m 46,3 km/h (6 Bft)
15.02.2014 15:50 11,6 C 10,0 C 61 % 997,2 hPa 0,0 l/m 0 min 0 min 0,0 UV-I 116 W/m 28,3 km/h (4 Bft)
15.02.2014 15:52 11,5 C 10,0 C 61 % 997,2 hPa 0,0 l/m 0 min 0 min 0,0 UV-I 102 W/m 18,0 km/h (3 Bft)
15.02.2014 15:54 11,5 C 10,0 C 61 % 997,4 hPa 0,0 l/m 0 min 0 min 0,0 UV-I 102 W/m 28,3 km/h (4 Bft)
15.02.2014 15:56 11,5 C 10,0 C 61 % 997,4 hPa 0,0 l/m 0 min 0 min 0,0 UV-I 134 W/m 38,6 km/h (5 Bft)
15.02.2014 15:58 11,4 C 10,0 C 60 % 997,4 hPa 0,0 l/m 0 min 0 min 0,0 UV-I 123 W/m 20,6 km/h (4 Bft)
15.02.2014 16:00 11,4 C 10,0 C 60 % 997,4 hPa 0,0 l/m 0 min 0 min 0,0 UV-I 113 W/m 33,5 km/h (5 Bft)
15.02.2014 16:02 11,4 C 10,0 C 60 % 997,5 hPa 0,0 l/m 0 min 0 min 0,0 UV-I 100 W/m 36,0 km/h (5 Bft)
15.02.2014 16:04 11,4 C 10,0 C 60 % 997,5 hPa 0,0 l/m 0 min 0 min 0,0 UV-I 83 W/m 33,5 km/h (5 Bft)
15.02.2014 16:06 11,3 C 10,0 C 61 % 997,5 hPa 0,0 l/m 0 min 0 min 0,0 UV-I 90 W/m 33,5 km/h (5 Bft)
15.02.2014 16:08 11,3 C 10,0 C 61 % 997,5 hPa 0,0 l/m 0 min 0 min 0,0 UV-I 88 W/m 28,3 km/h (4 Bft)
15.02.2014 16:10 11,3 C 10,0 C 61 % 997,5 hPa 0,0 l/m 0 min 0 min 0,0 UV-I 79 W/m 20,6 km/h (4 Bft)
15.02.2014 16:12 11,2 C 10,0 C 62 % 997,5 hPa 0,0 l/m 0 min 0 min 0,0 UV-I 81 W/m 15,4 km/h (3 Bft)
15.02.2014 16:14 11,2 C 10,0 C 62 % 997,5 hPa 0,0 l/m 0 min 0 min 0,0 UV-I 81 W/m 20,6 km/h (4 Bft)
15.02.2014 16:16 11,2 C 9,4 C 63 % 997,5 hPa 0,0 l/m 0 min 0 min 0,0 UV-I 93 W/m 20,6 km/h (4 Bft)
15.02.2014 16:18 11,2 C 10,0 C 63 % 997,6 hPa 0,0 l/m 0 min 0 min 0,0 UV-I 104 W/m 20,6 km/h (4 Bft)
15.02.2014 16:20 11,2 C 10,0 C 63 % 997,6 hPa 0,0 l/m 0 min 0 min 0,0 UV-I 86 W/m 43,8 km/h (6 Bft)
15.02.2014 16:22 11,2 C 9,4 C 63 % 997,5 hPa 0,0 l/m 0 min 0 min 0,0 UV-I 83 W/m 38,6 km/h (5 Bft)
15.02.2014 16:24 11,2 C 9,4 C 63 % 997,4 hPa 0,0 l/m 0 min 0 min 0,0 UV-I 86 W/m 25,7 km/h (4 Bft)
15.02.2014 16:26 11,1 C 9,4 C 63 % 997,4 hPa 0,0 l/m 0 min 0 min 0,0 UV-I 84 W/m 25,7 km/h (4 Bft)
15.02.2014 16:28 11,1 C 9,4 C 63 % 997,3 hPa 0,0 l/m 0 min 0 min 0,0 UV-I 72 W/m 25,7 km/h (4 Bft)
15.02.2014 16:30 11,1 C 9,4 C 63 % 997,3 hPa 0,0 l/m 0 min 0 min 0,0 UV-I 74 W/m 33,5 km/h (5 Bft)
15.02.2014 16:32 11,1 C 9,4 C 64 % 997,3 hPa 0,0 l/m 0 min 0 min 0,0 UV-I 62 W/m 23,2 km/h (4 Bft)
15.02.2014 16:34 11,0 C 9,4 C 64 % 997,3 hPa 0,0 l/m 0 min 0 min 0,0 UV-I 58 W/m 23,2 km/h (4 Bft)
15.02.2014 16:36 11,0 C 9,4 C 64 % 997,2 hPa 0,0 l/m 0 min 0 min 0,0 UV-I 74 W/m 15,4 km/h (3 Bft)
15.02.2014 16:38 10,9 C 9,4 C 65 % 997,2 hPa 0,0 l/m 0 min 0 min 0,0 UV-I 79 W/m 15,4 km/h (3 Bft)
15.02.2014 16:40 10,9 C 9,4 C 65 % 997,2 hPa 0,0 l/m 0 min 0 min 0,0 UV-I 54 W/m 12,9 km/h (3 Bft)
15.02.2014 16:42 10,9 C 9,4 C 65 % 997,2 hPa 0,0 l/m 0 min 0 min 0,0 UV-I 53 W/m 18,0 km/h (3 Bft)
15.02.2014 16:44 10,8 C 9,4 C 65 % 997,2 hPa 0,0 l/m 0 min 0 min 0,0 UV-I 49 W/m 25,7 km/h (4 Bft)
15.02.2014 16:46 10,8 C 9,4 C 65 % 997,4 hPa 0,0 l/m 0 min 0 min 0,0 UV-I 42 W/m 33,5 km/h (5 Bft)
15.02.2014 16:48 10,8 C 9,4 C 64 % 997,4 hPa 0,0 l/m 0 min 0 min 0,0 UV-I 40 W/m 38,6 km/h (5 Bft)
15.02.2014 16:50 10,8 C 9,4 C 64 % 997,4 hPa 0,0 l/m 0 min 0 min 0,0 UV-I 37 W/m 20,6 km/h (4 Bft)
15.02.2014 16:52 10,8 C 8,9 C 64 % 997,5 hPa 0,0 l/m 0 min 0 min 0,0 UV-I 33 W/m 25,7 km/h (4 Bft)
15.02.2014 16:54 10,8 C 8,9 C 64 % 997,4 hPa 0,0 l/m 0 min 0 min 0,0 UV-I 32 W/m 15,4 km/h (3 Bft)
15.02.2014 16:56 10,8 C 8,9 C 65 % 997,5 hPa 0,0 l/m 0 min 0 min 0,0 UV-I 28 W/m 18,0 km/h (3 Bft)
15.02.2014 16:58 10,8 C 8,9 C 65 % 997,6 hPa 0,0 l/m 0 min 0 min 0,0 UV-I 28 W/m 10,3 km/h (2 Bft)
15.02.2014 17:00 10,7 C 8,9 C 65 % 997,6 hPa 0,0 l/m 0 min 0 min 0,0 UV-I 33 W/m 23,2 km/h (4 Bft)
15.02.2014 17:02 10,7 C 8,9 C 65 % 997,6 hPa 0,0 l/m 0 min 0 min 0,0 UV-I 35 W/m 15,4 km/h (3 Bft)
15.02.2014 17:04 10,7 C 8,9 C 65 % 997,5 hPa 0,0 l/m 0 min 0 min 0,0 UV-I 30 W/m 30,9 km/h (5 Bft)
15.02.2014 17:06 10,7 C 8,9 C 65 % 997,7 hPa 0,0 l/m 0 min 0 min 0,0 UV-I 32 W/m 10,3 km/h (2 Bft)
15.02.2014 17:08 10,7 C 8,9 C 65 % 997,5 hPa 0,0 l/m 0 min 0 min 0,0 UV-I 21 W/m 25,7 km/h (4 Bft)
15.02.2014 17:10 10,7 C 8,9 C 65 % 997,6 hPa 0,0 l/m 0 min 0 min 0,0 UV-I 25 W/m 20,6 km/h (4 Bft)
15.02.2014 17:12 10,7 C 8,9 C 65 % 997,6 hPa 0,0 l/m 0 min 0 min 0,0 UV-I 26 W/m 20,6 km/h (4 Bft)
15.02.2014 17:14 10,7 C 8,9 C 65 % 997,6 hPa 0,0 l/m 0 min 0 min 0,0 UV-I 26 W/m 28,3 km/h (4 Bft)
15.02.2014 17:16 10,7 C 8,9 C 65 % 997,7 hPa 0,0 l/m 0 min 0 min 0,0 UV-I 25 W/m 15,4 km/h (3 Bft)
15.02.2014 17:18 10,7 C 8,9 C 66 % 997,7 hPa 0,0 l/m 0 min 0 min 0,0 UV-I 21 W/m 36,0 km/h (5 Bft)
15.02.2014 17:20 10,7 C 8,9 C 65 % 997,7 hPa 0,0 l/m 0 min 0 min 0,0 UV-I 16 W/m 28,3 km/h (4 Bft)
15.02.2014 17:22 10,7 C 8,9 C 65 % 997,6 hPa 0,0 l/m 0 min 0 min 0,0 UV-I 14 W/m 38,6 km/h (5 Bft)
15.02.2014 17:24 10,6 C 8,9 C 66 % 997,5 hPa 0,0 l/m 0 min 0 min 0,0 UV-I 14 W/m 20,6 km/h (4 Bft)
15.02.2014 17:26 10,6 C 8,9 C 66 % 997,5 hPa 0,0 l/m 0 min 0 min 0,0 UV-I 12 W/m 20,6 km/h (4 Bft)
15.02.2014 17:28 10,6 C 8,9 C 66 % 997,6 hPa 0,0 l/m 0 min 0 min 0,0 UV-I 11 W/m 25,7 km/h (4 Bft)
15.02.2014 17:30 10,6 C 8,9 C 66 % 997,6 hPa 0,0 l/m 0 min 0 min 0,0 UV-I 11 W/m 23,2 km/h (4 Bft)
15.02.2014 17:32 10,5 C 8,9 C 66 % 997,7 hPa 0,0 l/m 0 min 0 min 0,0 UV-I 9 W/m 33,5 km/h (5 Bft)
15.02.2014 17:34 10,5 C 8,9 C 66 % 997,6 hPa 0,0 l/m 0 min 0 min 0,0 UV-I 9 W/m 23,2 km/h (4 Bft)
15.02.2014 17:36 10,5 C 8,9 C 66 % 997,7 hPa 0,0 l/m 0 min 0 min 0,0 UV-I 9 W/m 20,6 km/h (4 Bft)
15.02.2014 17:38 10,4 C 8,9 C 66 % 997,8 hPa 0,0 l/m 0 min 0 min 0,0 UV-I 7 W/m 10,3 km/h (2 Bft)
15.02.2014 17:40 10,4 C 8,9 C 66 % 997,8 hPa 0,0 l/m 0 min 0 min 0,0 UV-I 7 W/m 20,6 km/h (4 Bft)
15.02.2014 17:42 10,4 C 8,9 C 66 % 997,9 hPa 0,0 l/m 0 min 0 min 0,0 UV-I 5 W/m 10,3 km/h (2 Bft)
15.02.2014 17:44 10,4 C 8,3 C 66 % 997,9 hPa 0,0 l/m 0 min 0 min 0,0 UV-I 5 W/m 15,4 km/h (3 Bft)
15.02.2014 17:46 10,4 C 8,3 C 66 % 997,8 hPa 0,0 l/m 0 min 0 min 0,0 UV-I 5 W/m 23,2 km/h (4 Bft)
15.02.2014 17:48 10,3 C 8,3 C 67 % 997,9 hPa 0,0 l/m 0 min 0 min 0,0 UV-I 5 W/m 18,0 km/h (3 Bft)
15.02.2014 17:50 10,3 C 8,3 C 67 % 997,8 hPa 0,0 l/m 0 min 0 min 0,0 UV-I 5 W/m 15,4 km/h (3 Bft)
15.02.2014 17:52 10,3 C 8,3 C 67 % 997,8 hPa 0,0 l/m 0 min 0 min 0,0 UV-I 0 W/m 28,3 km/h (4 Bft)
15.02.2014 17:54 10,3 C 8,3 C 67 % 997,9 hPa 0,0 l/m 0 min 0 min 0,0 UV-I 0 W/m 25,7 km/h (4 Bft)
15.02.2014 17:56 10,3 C 8,3 C 67 % 997,9 hPa 0,0 l/m 0 min 0 min 0,0 UV-I 0 W/m 23,2 km/h (4 Bft)
15.02.2014 17:58 10,3 C 8,3 C 67 % 997,9 hPa 0,0 l/m 0 min 0 min 0,0 UV-I 0 W/m 25,7 km/h (4 Bft)
15.02.2014 18:00 10,3 C 8,3 C 67 % 997,9 hPa 0,0 l/m 0 min 0 min 0,0 UV-I 0 W/m 36,0 km/h (5 Bft)
15.02.2014 18:02 10,3 C 8,3 C 67 % 998,0 hPa 0,0 l/m 0 min 0 min 0,0 UV-I 0 W/m 30,9 km/h (5 Bft)
15.02.2014 18:04 10,3 C 8,3 C 68 % 998,0 hPa 0,0 l/m 0 min 0 min 0,0 UV-I 0 W/m 28,3 km/h (4 Bft)
15.02.2014 18:06 10,3 C 8,3 C 68 % 998,0 hPa 0,0 l/m 0 min 0 min 0,0 UV-I 0 W/m 7,7 km/h (2 Bft)
15.02.2014 18:08 10,3 C 8,3 C 68 % 998,0 hPa 0,0 l/m 0 min 0 min 0,0 UV-I 0 W/m 18,0 km/h (3 Bft)
15.02.2014 18:10 10,3 C 8,3 C 68 % 998,0 hPa 0,0 l/m 0 min 0 min 0,0 UV-I 0 W/m 25,7 km/h (4 Bft)
15.02.2014 18:12 10,3 C 8,3 C 68 % 998,0 hPa 0,0 l/m 0 min 0 min 0,0 UV-I 0 W/m 12,9 km/h (3 Bft)
15.02.2014 18:14 10,3 C 8,3 C 68 % 998,1 hPa 0,0 l/m 0 min 0 min 0,0 UV-I 0 W/m 25,7 km/h (4 Bft)
15.02.2014 18:16 10,3 C 8,3 C 68 % 998,0 hPa 0,0 l/m 0 min 0 min 0,0 UV-I 0 W/m 23,2 km/h (4 Bft)
15.02.2014 18:18 10,3 C 8,3 C 68 % 998,2 hPa 0,0 l/m 0 min 0 min 0,0 UV-I 0 W/m 12,9 km/h (3 Bft)
15.02.2014 18:20 10,2 C 8,3 C 69 % 998,3 hPa 0,0 l/m 0 min 0 min 0,0 UV-I 0 W/m 25,7 km/h (4 Bft)
15.02.2014 18:22 10,2 C 8,3 C 69 % 998,3 hPa 0,0 l/m 0 min 0 min 0,0 UV-I 0 W/m 28,3 km/h (4 Bft)
15.02.2014 18:24 10,2 C 8,3 C 69 % 998,3 hPa 0,0 l/m 0 min 0 min 0,0 UV-I 0 W/m 23,2 km/h (4 Bft)
15.02.2014 18:26 10,2 C 8,3 C 69 % 998,4 hPa 0,0 l/m 0 min 0 min 0,0 UV-I 0 W/m 12,9 km/h (3 Bft)
15.02.2014 18:28 10,2 C 8,3 C 69 % 998,5 hPa 0,0 l/m 0 min 0 min 0,0 UV-I 0 W/m 12,9 km/h (3 Bft)
15.02.2014 18:30 10,2 C 8,3 C 69 % 998,6 hPa 0,0 l/m 0 min 0 min 0,0 UV-I 0 W/m 20,6 km/h (4 Bft)
15.02.2014 18:32 10,1 C 8,3 C 69 % 998,6 hPa 0,0 l/m 0 min 0 min 0,0 UV-I 0 W/m 15,4 km/h (3 Bft)
15.02.2014 18:34 10,1 C 8,3 C 69 % 998,6 hPa 0,0 l/m 0 min 0 min 0,0 UV-I 0 W/m 30,9 km/h (5 Bft)
15.02.2014 18:36 10,1 C 8,3 C 70 % 998,6 hPa 0,0 l/m 0 min 0 min 0,0 UV-I 0 W/m 20,6 km/h (4 Bft)
15.02.2014 18:38 10,1 C 8,3 C 70 % 998,6 hPa 0,0 l/m 0 min 0 min 0,0 UV-I 0 W/m 20,6 km/h (4 Bft)
15.02.2014 18:40 10,1 C 8,3 C 70 % 998,6 hPa 0,0 l/m 0 min 0 min 0,0 UV-I 0 W/m 10,3 km/h (2 Bft)
15.02.2014 18:42 10,1 C 8,3 C 70 % 998,6 hPa 0,0 l/m 0 min 0 min 0,0 UV-I 0 W/m 15,4 km/h (3 Bft)
15.02.2014 18:44 10,1 C 8,3 C 70 % 998,7 hPa 0,0 l/m 0 min 0 min 0,0 UV-I 0 W/m 20,6 km/h (4 Bft)
15.02.2014 18:46 10,1 C 8,3 C 70 % 998,6 hPa 0,0 l/m 0 min 0 min 0,0 UV-I 0 W/m 36,0 km/h (5 Bft)
15.02.2014 18:48 10,1 C 8,3 C 70 % 998,7 hPa 0,0 l/m 0 min 0 min 0,0 UV-I 0 W/m 28,3 km/h (4 Bft)
15.02.2014 18:50 10,1 C 8,3 C 70 % 998,7 hPa 0,0 l/m 0 min 0 min 0,0 UV-I 0 W/m 23,2 km/h (4 Bft)
15.02.2014 18:52 10,1 C 8,3 C 70 % 998,7 hPa 0,0 l/m 0 min 0 min 0,0 UV-I 0 W/m 33,5 km/h (5 Bft)
15.02.2014 18:54 10,1 C 8,3 C 70 % 998,8 hPa 0,0 l/m 0 min 0 min 0,0 UV-I 0 W/m 15,4 km/h (3 Bft)
15.02.2014 18:56 10,1 C 8,3 C 70 % 998,9 hPa 0,0 l/m 0 min 0 min 0,0 UV-I 0 W/m 15,4 km/h (3 Bft)
15.02.2014 18:58 10,1 C 8,3 C 70 % 998,9 hPa 0,0 l/m 0 min 0 min 0,0 UV-I 0 W/m 18,0 km/h (3 Bft)
15.02.2014 19:00 10,1 C 8,3 C 70 % 998,9 hPa 0,0 l/m 0 min 0 min 0,0 UV-I 0 W/m 28,3 km/h (4 Bft)
15.02.2014 19:02 10,1 C 8,3 C 70 % 999,1 hPa 0,0 l/m 0 min 0 min 0,0 UV-I 0 W/m 12,9 km/h (3 Bft)
15.02.2014 19:04 10,0 C 8,3 C 70 % 999,1 hPa 0,0 l/m 0 min 0 min 0,0 UV-I 0 W/m 23,2 km/h (4 Bft)
15.02.2014 19:06 10,1 C 8,3 C 70 % 999,2 hPa 0,0 l/m 0 min 0 min 0,0 UV-I 0 W/m 23,2 km/h (4 Bft)
15.02.2014 19:08 10,1 C 8,3 C 70 % 999,2 hPa 0,0 l/m 0 min 0 min 0,0 UV-I 0 W/m 25,7 km/h (4 Bft)
15.02.2014 19:10 10,1 C 8,3 C 70 % 999,2 hPa 0,0 l/m 0 min 0 min 0,0 UV-I 0 W/m 41,2 km/h (6 Bft)
15.02.2014 19:12 10,1 C 8,3 C 70 % 999,1 hPa 0,0 l/m 0 min 0 min 0,0 UV-I 0 W/m 20,6 km/h (4 Bft)
15.02.2014 19:14 10,1 C 8,3 C 70 % 999,2 hPa 0,0 l/m 0 min 0 min 0,0 UV-I 0 W/m 23,2 km/h (4 Bft)
15.02.2014 19:16 10,0 C 8,3 C 70 % 999,3 hPa 0,0 l/m 0 min 0 min 0,0 UV-I 0 W/m 15,4 km/h (3 Bft)
15.02.2014 19:18 10,0 C 8,3 C 70 % 999,3 hPa 0,0 l/m 0 min 0 min 0,0 UV-I 0 W/m 20,6 km/h (4 Bft)
15.02.2014 19:20 10,0 C 8,3 C 70 % 999,3 hPa 0,0 l/m 0 min 0 min 0,0 UV-I 0 W/m 20,6 km/h (4 Bft)
15.02.2014 19:22 10,0 C 8,3 C 70 % 999,3 hPa 0,0 l/m 0 min 0 min 0,0 UV-I 0 W/m 23,2 km/h (4 Bft)
15.02.2014 19:24 10,0 C 8,3 C 70 % 999,2 hPa 0,0 l/m 0 min 0 min 0,0 UV-I 0 W/m 15,4 km/h (3 Bft)
15.02.2014 19:26 10,0 C 8,3 C 71 % 999,3 hPa 0,0 l/m 0 min 0 min 0,0 UV-I 0 W/m 10,3 km/h (2 Bft)
15.02.2014 19:28 10,0 C 8,3 C 71 % 999,3 hPa 0,0 l/m 0 min 0 min 0,0 UV-I 0 W/m 20,6 km/h (4 Bft)
15.02.2014 19:30 9,9 C 8,3 C 71 % 999,3 hPa 0,0 l/m 0 min 0 min 0,0 UV-I 0 W/m 23,2 km/h (4 Bft)
15.02.2014 19:32 9,9 C 7,8 C 71 % 999,3 hPa 0,0 l/m 0 min 0 min 0,0 UV-I 0 W/m 15,4 km/h (3 Bft)
15.02.2014 19:34 9,9 C 8,3 C 71 % 999,2 hPa 0,0 l/m 0 min 0 min 0,0 UV-I 0 W/m 20,6 km/h (4 Bft)
15.02.2014 19:36 9,9 C 8,3 C 71 % 999,3 hPa 0,0 l/m 0 min 0 min 0,0 UV-I 0 W/m 41,2 km/h (6 Bft)
15.02.2014 19:38 9,9 C 8,3 C 71 % 999,3 hPa 0,0 l/m 0 min 0 min 0,0 UV-I 0 W/m 23,2 km/h (4 Bft)
15.02.2014 19:40 9,9 C 7,8 C 71 % 999,2 hPa 0,0 l/m 0 min 0 min 0,0 UV-I 0 W/m 18,0 km/h (3 Bft)
15.02.2014 19:42 9,9 C 7,8 C 71 % 999,2 hPa 0,0 l/m 0 min 0 min 0,0 UV-I 0 W/m 20,6 km/h (4 Bft)
15.02.2014 19:44 9,8 C 7,8 C 71 % 999,2 hPa 0,0 l/m 0 min 0 min 0,0 UV-I 0 W/m 20,6 km/h (4 Bft)
15.02.2014 19:46 9,8 C 7,8 C 72 % 999,3 hPa 0,0 l/m 0 min 0 min 0,0 UV-I 0 W/m 15,4 km/h (3 Bft)
15.02.2014 19:48 9,7 C 7,8 C 72 % 999,3 hPa 0,0 l/m 0 min 0 min 0,0 UV-I 0 W/m 10,3 km/h (2 Bft)
15.02.2014 19:50 9,7 C 7,8 C 72 % 999,4 hPa 0,0 l/m 0 min 0 min 0,0 UV-I 0 W/m 25,7 km/h (4 Bft)
15.02.2014 19:52 9,7 C 7,8 C 72 % 999,3 hPa 0,0 l/m 0 min 0 min 0,0 UV-I 0 W/m 38,6 km/h (5 Bft)
15.02.2014 19:54 9,7 C 7,8 C 71 % 999,3 hPa 0,0 l/m 0 min 0 min 0,0 UV-I 0 W/m 23,2 km/h (4 Bft)
15.02.2014 19:56 9,7 C 7,8 C 71 % 999,3 hPa 0,0 l/m 0 min 0 min 0,0 UV-I 0 W/m 20,6 km/h (4 Bft)
15.02.2014 19:58 9,7 C 7,8 C 71 % 999,3 hPa 0,0 l/m 0 min 0 min 0,0 UV-I 0 W/m 23,2 km/h (4 Bft)
15.02.2014 20:00 9,7 C 7,8 C 72 % 999,3 hPa 0,0 l/m 0 min 0 min 0,0 UV-I 0 W/m 18,0 km/h (3 Bft)
15.02.2014 20:02 9,7 C 7,8 C 72 % 999,4 hPa 0,0 l/m 0 min 0 min 0,0 UV-I 0 W/m 18,0 km/h (3 Bft)
15.02.2014 20:04 9,7 C 7,8 C 72 % 999,6 hPa 0,0 l/m 0 min 0 min 0,0 UV-I 0 W/m 28,3 km/h (4 Bft)
15.02.2014 20:06 9,7 C 7,8 C 72 % 999,4 hPa 0,0 l/m 0 min 0 min 0,0 UV-I 0 W/m 30,9 km/h (5 Bft)
15.02.2014 20:08 9,7 C 7,8 C 72 % 999,5 hPa 0,0 l/m 0 min 0 min 0,0 UV-I 0 W/m 25,7 km/h (4 Bft)
15.02.2014 20:10 9,7 C 7,8 C 72 % 999,3 hPa 0,0 l/m 0 min 0 min 0,0 UV-I 0 W/m 46,3 km/h (6 Bft)
15.02.2014 20:12 9,7 C 7,8 C 72 % 999,3 hPa 0,0 l/m 0 min 0 min 0,0 UV-I 0 W/m 23,2 km/h (4 Bft)
15.02.2014 20:14 9,7 C 7,8 C 72 % 999,2 hPa 0,0 l/m 0 min 0 min 0,0 UV-I 0 W/m 18,0 km/h (3 Bft)
15.02.2014 20:16 9,6 C 7,8 C 72 % 999,3 hPa 0,0 l/m 0 min 0 min 0,0 UV-I 0 W/m 25,7 km/h (4 Bft)
15.02.2014 20:18 9,6 C 7,8 C 72 % 999,2 hPa 0,0 l/m 0 min 0 min 0,0 UV-I 0 W/m 38,6 km/h (5 Bft)
15.02.2014 20:20 9,6 C 7,8 C 72 % 999,3 hPa 0,0 l/m 0 min 0 min 0,0 UV-I 0 W/m 23,2 km/h (4 Bft)
15.02.2014 20:22 9,6 C 7,8 C 71 % 999,3 hPa 0,0 l/m 0 min 0 min 0,0 UV-I 0 W/m 33,5 km/h (5 Bft)
15.02.2014 20:24 9,6 C 7,8 C 71 % 999,3 hPa 0,0 l/m 0 min 0 min 0,0 UV-I 0 W/m 23,2 km/h (4 Bft)
15.02.2014 20:26 9,6 C 7,8 C 71 % 999,3 hPa 0,0 l/m 0 min 0 min 0,0 UV-I 0 W/m 28,3 km/h (4 Bft)
15.02.2014 20:28 9,6 C 7,8 C 71 % 999,4 hPa 0,0 l/m 0 min 0 min 0,0 UV-I 0 W/m 23,2 km/h (4 Bft)
15.02.2014 20:30 9,6 C 7,8 C 71 % 999,5 hPa 0,0 l/m 0 min 0 min 0,0 UV-I 0 W/m 15,4 km/h (3 Bft)
15.02.2014 20:32 9,6 C 7,8 C 71 % 999,5 hPa 0,0 l/m 0 min 0 min 0,0 UV-I 0 W/m 25,7 km/h (4 Bft)
15.02.2014 20:34 9,6 C 7,8 C 71 % 999,6 hPa 0,0 l/m 0 min 0 min 0,0 UV-I 0 W/m 15,4 km/h (3 Bft)
15.02.2014 20:36 9,5 C 7,8 C 71 % 999,7 hPa 0,0 l/m 0 min 0 min 0,0 UV-I 0 W/m 23,2 km/h (4 Bft)
15.02.2014 20:38 9,5 C 7,8 C 71 % 999,6 hPa 0,0 l/m 0 min 0 min 0,0 UV-I 0 W/m 20,6 km/h (4 Bft)
15.02.2014 20:40 9,4 C 7,2 C 71 % 999,6 hPa 0,0 l/m 0 min 0 min 0,0 UV-I 0 W/m 10,3 km/h (2 Bft)
15.02.2014 20:42 9,4 C 7,2 C 72 % 999,6 hPa 0,0 l/m 0 min 0 min 0,0 UV-I 0 W/m 18,0 km/h (3 Bft)
15.02.2014 20:44 9,4 C 7,8 C 72 % 999,6 hPa 0,0 l/m 0 min 0 min 0,0 UV-I 0 W/m 20,6 km/h (4 Bft)
15.02.2014 20:46 9,4 C 7,8 C 72 % 999,8 hPa 0,0 l/m 0 min 0 min 0,0 UV-I 0 W/m 33,5 km/h (5 Bft)
15.02.2014 20:48 9,4 C 7,8 C 72 % 999,7 hPa 0,0 l/m 0 min 0 min 0,0 UV-I 0 W/m 23,2 km/h (4 Bft)
15.02.2014 20:50 9,4 C 7,8 C 72 % 999,7 hPa 0,0 l/m 0 min 2 min 0,0 UV-I 0 W/m 12,9 km/h (3 Bft)
15.02.2014 20:52 9,4 C 7,8 C 73 % 999,6 hPa 0,0 l/m 0 min 2 min 0,0 UV-I 0 W/m 23,2 km/h (4 Bft)
15.02.2014 20:54 9,4 C 7,8 C 73 % 999,5 hPa 0,0 l/m 0 min 0 min 0,0 UV-I 0 W/m 25,7 km/h (4 Bft)
15.02.2014 20:56 9,4 C 7,8 C 73 % 999,6 hPa 0,0 l/m 0 min 0 min 0,0 UV-I 0 W/m 25,7 km/h (4 Bft)
15.02.2014 20:58 9,4 C 7,8 C 73 % 999,7 hPa 0,0 l/m 0 min 0 min 0,0 UV-I 0 W/m 30,9 km/h (5 Bft)
15.02.2014 21:00 9,4 C 7,8 C 73 % 999,6 hPa 0,0 l/m 0 min 0 min 0,0 UV-I 0 W/m 23,2 km/h (4 Bft)
15.02.2014 21:02 9,4 C 7,8 C 73 % 999,7 hPa 0,0 l/m 0 min 0 min 0,0 UV-I 0 W/m 18,0 km/h (3 Bft)
15.02.2014 21:04 9,3 C 7,2 C 73 % 999,7 hPa 0,0 l/m 0 min 0 min 0,0 UV-I 0 W/m 15,4 km/h (3 Bft)
15.02.2014 21:06 9,3 C 7,2 C 73 % 999,8 hPa 0,0 l/m 0 min 0 min 0,0 UV-I 0 W/m 23,2 km/h (4 Bft)
15.02.2014 21:08 9,3 C 7,2 C 73 % 999,9 hPa 0,0 l/m 0 min 0 min 0,0 UV-I 0 W/m 28,3 km/h (4 Bft)
15.02.2014 21:10 9,3 C 7,8 C 73 % 999,8 hPa 0,0 l/m 0 min 0 min 0,0 UV-I 0 W/m 25,7 km/h (4 Bft)
15.02.2014 21:12 9,3 C 7,8 C 73 % 999,9 hPa 0,0 l/m 0 min 0 min 0,0 UV-I 0 W/m 28,3 km/h (4 Bft)
15.02.2014 21:14 9,3 C 7,8 C 73 % 999,9 hPa 0,0 l/m 0 min 0 min 0,0 UV-I 0 W/m 25,7 km/h (4 Bft)
15.02.2014 21:16 9,4 C 7,8 C 73 % 999,9 hPa 0,0 l/m 0 min 0 min 0,0 UV-I 0 W/m 25,7 km/h (4 Bft)
15.02.2014 21:18 9,4 C 7,8 C 73 % 999,9 hPa 0,0 l/m 0 min 0 min 0,0 UV-I 0 W/m 28,3 km/h (4 Bft)
15.02.2014 21:20 9,4 C 7,8 C 73 % 999,9 hPa 0,0 l/m 0 min 0 min 0,0 UV-I 0 W/m 25,7 km/h (4 Bft)
15.02.2014 21:22 9,4 C 7,8 C 73 % 999,9 hPa 0,0 l/m 0 min 0 min 0,0 UV-I 0 W/m 20,6 km/h (4 Bft)
15.02.2014 21:24 9,4 C 7,8 C 72 % 1000,2 hPa 0,0 l/m 0 min 0 min 0,0 UV-I 0 W/m 30,9 km/h (5 Bft)
15.02.2014 21:26 9,4 C 7,8 C 72 % 999,8 hPa 0,0 l/m 0 min 0 min 0,0 UV-I 0 W/m 25,7 km/h (4 Bft)
15.02.2014 21:28 9,4 C 7,8 C 73 % 999,9 hPa 0,0 l/m 0 min 0 min 0,0 UV-I 0 W/m 28,3 km/h (4 Bft)
15.02.2014 21:30 9,4 C 7,8 C 72 % 999,9 hPa 0,0 l/m 0 min 0 min 0,0 UV-I 0 W/m 18,0 km/h (3 Bft)
15.02.2014 21:32 9,4 C 7,8 C 72 % 1000,0 hPa 0,0 l/m 0 min 0 min 0,0 UV-I 0 W/m 23,2 km/h (4 Bft)
15.02.2014 21:34 9,4 C 7,8 C 72 % 1000,1 hPa 0,0 l/m 0 min 0 min 0,0 UV-I 0 W/m 25,7 km/h (4 Bft)
15.02.2014 21:36 9,4 C 7,8 C 72 % 1000,0 hPa 0,0 l/m 0 min 0 min 0,0 UV-I 0 W/m 20,6 km/h (4 Bft)
15.02.2014 21:38 9,4 C 7,8 C 72 % 1000,1 hPa 0,0 l/m 0 min 0 min 0,0 UV-I 0 W/m 20,6 km/h (4 Bft)
15.02.2014 21:40 9,4 C 7,8 C 72 % 1000,1 hPa 0,0 l/m 0 min 0 min 0,0 UV-I 0 W/m 43,8 km/h (6 Bft)
15.02.2014 21:42 9,4 C 7,8 C 72 % 1000,1 hPa 0,0 l/m 0 min 0 min 0,0 UV-I 0 W/m 18,0 km/h (3 Bft)
15.02.2014 21:44 9,4 C 7,8 C 72 % 1000,2 hPa 0,0 l/m 0 min 0 min 0,0 UV-I 0 W/m 36,0 km/h (5 Bft)
15.02.2014 21:46 9,4 C 7,8 C 72 % 1000,2 hPa 0,0 l/m 0 min 0 min 0,0 UV-I 0 W/m 20,6 km/h (4 Bft)
15.02.2014 21:48 9,4 C 7,8 C 72 % 1000,3 hPa 0,0 l/m 0 min 0 min 0,0 UV-I 0 W/m 15,4 km/h (3 Bft)
15.02.2014 21:50 9,4 C 7,8 C 72 % 1000,3 hPa 0,0 l/m 0 min 0 min 0,0 UV-I 0 W/m 25,7 km/h (4 Bft)
15.02.2014 21:52 9,4 C 7,8 C 72 % 1000,2 hPa 0,0 l/m 0 min 0 min 0,0 UV-I 0 W/m 18,0 km/h (3 Bft)
15.02.2014 21:54 9,4 C 7,8 C 72 % 1000,3 hPa 0,0 l/m 0 min 0 min 0,0 UV-I 0 W/m 18,0 km/h (3 Bft)
15.02.2014 21:56 9,4 C 7,8 C 72 % 1000,3 hPa 0,0 l/m 0 min 0 min 0,0 UV-I 0 W/m 28,3 km/h (4 Bft)
15.02.2014 21:58 9,4 C 7,8 C 72 % 1000,3 hPa 0,0 l/m 0 min 0 min 0,0 UV-I 0 W/m 36,0 km/h (5 Bft)
15.02.2014 22:00 9,4 C 7,8 C 72 % 1000,3 hPa 0,0 l/m 0 min 0 min 0,0 UV-I 0 W/m 36,0 km/h (5 Bft)
15.02.2014 22:02 9,4 C 7,8 C 72 % 1000,3 hPa 0,0 l/m 0 min 0 min 0,0 UV-I 0 W/m 23,2 km/h (4 Bft)
15.02.2014 22:04 9,4 C 7,8 C 72 % 1000,3 hPa 0,0 l/m 0 min 0 min 0,0 UV-I 0 W/m 30,9 km/h (5 Bft)
15.02.2014 22:06 9,4 C 7,8 C 72 % 1000,3 hPa 0,0 l/m 0 min 0 min 0,0 UV-I 0 W/m 23,2 km/h (4 Bft)
15.02.2014 22:08 9,4 C 7,8 C 71 % 1000,3 hPa 0,0 l/m 0 min 0 min 0,0 UV-I 0 W/m 33,5 km/h (5 Bft)
15.02.2014 22:10 9,4 C 7,8 C 71 % 1000,3 hPa 0,0 l/m 0 min 0 min 0,0 UV-I 0 W/m 30,9 km/h (5 Bft)
15.02.2014 22:12 9,4 C 7,8 C 71 % 1000,3 hPa 0,0 l/m 0 min 0 min 0,0 UV-I 0 W/m 28,3 km/h (4 Bft)
15.02.2014 22:14 9,4 C 7,8 C 71 % 1000,2 hPa 0,0 l/m 0 min 0 min 0,0 UV-I 0 W/m 30,9 km/h (5 Bft)
15.02.2014 22:16 9,4 C 7,8 C 71 % 1000,4 hPa 0,0 l/m 0 min 0 min 0,0 UV-I 0 W/m 33,5 km/h (5 Bft)
15.02.2014 22:18 9,3 C 7,2 C 71 % 1000,3 hPa 0,0 l/m 0 min 0 min 0,0 UV-I 0 W/m 30,9 km/h (5 Bft)
15.02.2014 22:20 9,3 C 7,8 C 71 % 1000,2 hPa 0,0 l/m 0 min 0 min 0,0 UV-I 0 W/m 41,2 km/h (6 Bft)
15.02.2014 22:22 9,3 C 7,2 C 71 % 1000,3 hPa 0,0 l/m 0 min 0 min 0,0 UV-I 0 W/m 28,3 km/h (4 Bft)
15.02.2014 22:24 9,2 C 7,2 C 71 % 1000,3 hPa 0,0 l/m 0 min 0 min 0,0 UV-I 0 W/m 25,7 km/h (4 Bft)
15.02.2014 22:26 9,2 C 7,2 C 71 % 1000,3 hPa 0,0 l/m 0 min 0 min 0,0 UV-I 0 W/m 25,7 km/h (4 Bft)
15.02.2014 22:28 9,2 C 7,2 C 71 % 1000,5 hPa 0,0 l/m 0 min 0 min 0,0 UV-I 0 W/m 25,7 km/h (4 Bft)
15.02.2014 22:30 9,1 C 7,2 C 71 % 1000,4 hPa 0,0 l/m 0 min 0 min 0,0 UV-I 0 W/m 38,6 km/h (5 Bft)
15.02.2014 22:32 9,1 C 7,2 C 71 % 1000,4 hPa 0,0 l/m 0 min 0 min 0,0 UV-I 0 W/m 18,0 km/h (3 Bft)
15.02.2014 22:34 9,0 C 7,2 C 71 % 1000,5 hPa 0,0 l/m 0 min 0 min 0,0 UV-I 0 W/m 38,6 km/h (5 Bft)
15.02.2014 22:36 8,9 C 7,2 C 71 % 1000,5 hPa 0,0 l/m 0 min 0 min 0,0 UV-I 0 W/m 20,6 km/h (4 Bft)
15.02.2014 22:38 8,9 C 7,2 C 71 % 1000,6 hPa 0,0 l/m 0 min 0 min 0,0 UV-I 0 W/m 38,6 km/h (5 Bft)
15.02.2014 22:40 8,9 C 7,2 C 71 % 1000,6 hPa 0,0 l/m 0 min 0 min 0,0 UV-I 0 W/m 25,7 km/h (4 Bft)
15.02.2014 22:42 8,8 C 7,2 C 72 % 1000,6 hPa 0,0 l/m 0 min 0 min 0,0 UV-I 0 W/m 23,2 km/h (4 Bft)
15.02.2014 22:44 8,8 C 7,2 C 72 % 1000,6 hPa 0,0 l/m 0 min 0 min 0,0 UV-I 0 W/m 28,3 km/h (4 Bft)
15.02.2014 22:46 8,7 C 6,7 C 72 % 1000,6 hPa 0,0 l/m 0 min 0 min 0,0 UV-I 0 W/m 28,3 km/h (4 Bft)
15.02.2014 22:48 8,7 C 6,7 C 72 % 1000,7 hPa 0,0 l/m 0 min 0 min 0,0 UV-I 0 W/m 15,4 km/h (3 Bft)
15.02.2014 22:50 8,6 C 6,7 C 72 % 1000,7 hPa 0,0 l/m 0 min 0 min 0,0 UV-I 0 W/m 28,3 km/h (4 Bft)
15.02.2014 22:52 8,6 C 6,7 C 73 % 1000,8 hPa 0,0 l/m 0 min 0 min 0,0 UV-I 0 W/m 33,5 km/h (5 Bft)
15.02.2014 22:54 8,6 C 6,7 C 73 % 1000,7 hPa 0,0 l/m 0 min 0 min 0,0 UV-I 0 W/m 33,5 km/h (5 Bft)
15.02.2014 22:56 8,6 C 6,7 C 74 % 1000,8 hPa 0,0 l/m 0 min 0 min 0,0 UV-I 0 W/m 46,3 km/h (6 Bft)
15.02.2014 22:58 8,5 C 6,7 C 74 % 1000,7 hPa 0,0 l/m 0 min 0 min 0,0 UV-I 0 W/m 20,6 km/h (4 Bft)
15.02.2014 23:00 8,5 C 6,7 C 74 % 1000,8 hPa 0,0 l/m 0 min 0 min 0,0 UV-I 0 W/m 23,2 km/h (4 Bft)
15.02.2014 23:02 8,4 C 6,7 C 74 % 1000,9 hPa 0,0 l/m 0 min 0 min 0,0 UV-I 0 W/m 20,6 km/h (4 Bft)
15.02.2014 23:04 8,4 C 6,7 C 74 % 1000,8 hPa 0,0 l/m 0 min 0 min 0,0 UV-I 0 W/m 28,3 km/h (4 Bft)
15.02.2014 23:06 8,4 C 6,7 C 75 % 1000,8 hPa 0,0 l/m 0 min 0 min 0,0 UV-I 0 W/m 18,0 km/h (3 Bft)
15.02.2014 23:08 8,3 C 6,7 C 75 % 1000,8 hPa 0,0 l/m 0 min 0 min 0,0 UV-I 0 W/m 23,2 km/h (4 Bft)
15.02.2014 23:10 8,3 C 6,7 C 75 % 1000,8 hPa 0,0 l/m 0 min 0 min 0,0 UV-I 0 W/m 20,6 km/h (4 Bft)
15.02.2014 23:12 8,3 C 6,7 C 75 % 1000,9 hPa 0,0 l/m 0 min 0 min 0,0 UV-I 0 W/m 38,6 km/h (5 Bft)
15.02.2014 23:14 8,3 C 6,7 C 75 % 1001,1 hPa 0,0 l/m 0 min 0 min 0,0 UV-I 0 W/m 25,7 km/h (4 Bft)
15.02.2014 23:16 8,3 C 6,7 C 75 % 1001,0 hPa 0,0 l/m 0 min 0 min 0,0 UV-I 0 W/m 12,9 km/h (3 Bft)
15.02.2014 23:18 8,3 C 6,7 C 75 % 1001,1 hPa 0,0 l/m 0 min 0 min 0,0 UV-I 0 W/m 12,9 km/h (3 Bft)
15.02.2014 23:20 8,3 C 6,7 C 75 % 1001,1 hPa 0,0 l/m 0 min 0 min 0,0 UV-I 0 W/m 18,0 km/h (3 Bft)
15.02.2014 23:22 8,3 C 6,7 C 75 % 1001,2 hPa 0,0 l/m 0 min 0 min 0,0 UV-I 0 W/m 18,0 km/h (3 Bft)
15.02.2014 23:24 8,3 C 6,7 C 75 % 1001,2 hPa 0,0 l/m 0 min 0 min 0,0 UV-I 0 W/m 15,4 km/h (3 Bft)
15.02.2014 23:26 8,3 C 6,7 C 75 % 1001,3 hPa 0,0 l/m 0 min 0 min 0,0 UV-I 0 W/m 15,4 km/h (3 Bft)
15.02.2014 23:28 8,3 C 6,7 C 75 % 1001,2 hPa 0,0 l/m 0 min 0 min 0,0 UV-I 0 W/m 28,3 km/h (4 Bft)
15.02.2014 23:30 8,3 C 6,7 C 75 % 1001,3 hPa 0,0 l/m 0 min 0 min 0,0 UV-I 0 W/m 15,4 km/h (3 Bft)
15.02.2014 23:32 8,3 C 6,7 C 75 % 1001,3 hPa 0,0 l/m 0 min 0 min 0,0 UV-I 0 W/m 18,0 km/h (3 Bft)
15.02.2014 23:34 8,3 C 6,7 C 75 % 1001,4 hPa 0,0 l/m 0 min 0 min 0,0 UV-I 0 W/m 28,3 km/h (4 Bft)
15.02.2014 23:36 8,3 C 6,7 C 75 % 1001,3 hPa 0,0 l/m 0 min 0 min 0,0 UV-I 0 W/m 25,7 km/h (4 Bft)
15.02.2014 23:38 8,3 C 6,7 C 75 % 1001,4 hPa 0,0 l/m 0 min 0 min 0,0 UV-I 0 W/m 28,3 km/h (4 Bft)
15.02.2014 23:40 8,4 C 6,7 C 75 % 1001,5 hPa 0,0 l/m 0 min 0 min 0,0 UV-I 0 W/m 18,0 km/h (3 Bft)
15.02.2014 23:42 8,4 C 6,7 C 75 % 1001,5 hPa 0,0 l/m 0 min 0 min 0,0 UV-I 0 W/m 30,9 km/h (5 Bft)
15.02.2014 23:44 8,4 C 6,7 C 75 % 1001,4 hPa 0,0 l/m 0 min 0 min 0,0 UV-I 0 W/m 18,0 km/h (3 Bft)
15.02.2014 23:46 8,4 C 6,7 C 75 % 1001,6 hPa 0,0 l/m 0 min 0 min 0,0 UV-I 0 W/m 20,6 km/h (4 Bft)
15.02.2014 23:48 8,4 C 6,7 C 75 % 1001,5 hPa 0,0 l/m 0 min 0 min 0,0 UV-I 0 W/m 23,2 km/h (4 Bft)
15.02.2014 23:50 8,4 C 6,7 C 74 % 1001,6 hPa 0,0 l/m 0 min 0 min 0,0 UV-I 0 W/m 20,6 km/h (4 Bft)
15.02.2014 23:52 8,4 C 7,2 C 74 % 1001,7 hPa 0,0 l/m 0 min 0 min 0,0 UV-I 0 W/m 18,0 km/h (3 Bft)
15.02.2014 23:54 8,4 C 6,7 C 74 % 1001,7 hPa 0,0 l/m 0 min 0 min 0,0 UV-I 0 W/m 30,9 km/h (5 Bft)
15.02.2014 23:56 8,4 C 6,7 C 74 % 1001,7 hPa 0,0 l/m 0 min 0 min 0,0 UV-I 0 W/m 25,7 km/h (4 Bft)
15.02.2014 23:58 8,4 C 6,7 C 74 % 1001,7 hPa 0,0 l/m 0 min 0 min 0,0 UV-I 0 W/m 18,0 km/h (3 Bft)
_ Min-Zeit 00:00 00:00 15:38 02:10 - - - - - 04:26
Minimum _ 6,7 C 5,0 C 60 % 990,3 hPa - - - - - 2,6 km/h (1 Bft)
_ Max-Zeit 12:56 12:52 01:56 23:52 06:38 09:20 07:54 12:54 11:46 09:04
Maximum _ 12,7 C 11,7 C 93 % 1001,7 hPa 0,2 l/m 2 min 2 min 0,5 UV-I 548 W/m 56,6 km/h
S (7 Bft)
Durchschnitt _ 10,6 C 8,8 C 72 % 995,7 hPa #0,2 l/m #3:32 h #8 min. 0,5 UV-I 171 W/m 26,3 km/h (4 Bft)
© 2014 W. Hausmann